GEFSNE_prec_meanprecacc_138.txt.gz
Total_Precipitation_Accumulation
2.06 2.12 2.11 2.14 1.99 1.84 1.81 1.89 1.98 1.77 1.62 1.45 1.23 1.06 1.12 1.12 1.15 0.96 0.88 0.87 0.76 0.68 0.60 0.50 0.44 0.46 0.49 0.58 0.63 0.68 0.76 0.90 1.21 1.47 1.29 1.13 1.04 1.09
1.83 1.89 1.92 1.97 1.99 1.96 1.92 1.89 1.84 1.79 1.70 1.52 1.24 0.98 1.05 1.12 1.21 1.02 1.00 1.08 0.92 0.75 0.64 0.55 0.50 0.44 0.42 0.42 0.42 0.39 0.40 0.46 0.70 1.21 1.31 1.16 1.12 1.20
1.60 1.63 1.73 1.79 1.96 1.99 1.96 1.90 1.88 1.80 1.65 1.56 1.32 1.09 1.08 1.13 1.18 1.09 1.10 1.08 0.93 0.84 0.73 0.66 0.58 0.54 0.50 0.47 0.45 0.38 0.32 0.30 0.33 0.50 0.72 0.81 0.97 1.18
1.37 1.37 1.49 1.57 1.71 1.83 1.93 1.85 1.85 1.80 1.77 1.71 1.48 1.26 1.18 1.17 1.18 1.13 1.04 1.03 1.02 0.95 0.82 0.75 0.70 0.64 0.58 0.51 0.48 0.45 0.41 0.37 0.34 0.35 0.45 0.57 0.68 0.82
1.16 1.17 1.22 1.29 1.41 1.54 1.66 1.76 1.76 1.71 1.81 1.79 1.58 1.34 1.22 1.18 1.20 1.16 1.08 1.13 1.05 1.01 0.93 0.83 0.77 0.71 0.65 0.61 0.58 0.53 0.47 0.44 0.42 0.43 0.45 0.50 0.59 0.65
0.93 0.92 0.95 0.97 1.07 1.22 1.35 1.49 1.63 1.75 1.84 1.86 1.72 1.43 1.24 1.21 1.24 1.28 1.26 1.15 1.15 1.05 1.02 0.97 0.95 0.90 0.79 0.71 0.63 0.58 0.54 0.51 0.49 0.47 0.47 0.47 0.46 0.47
0.91 0.83 0.77 0.76 0.85 0.94 1.04 1.28 1.47 1.62 1.76 1.83 1.75 1.58 1.39 1.30 1.25 1.23 1.29 1.37 1.35 1.21 1.16 1.05 0.99 0.88 0.79 0.71 0.63 0.55 0.50 0.45 0.42 0.40 0.38 0.36 0.36 0.38
0.88 0.89 0.88 0.83 0.72 0.66 0.70 0.87 1.10 1.30 1.47 1.58 1.62 1.52 1.36 1.30 1.35 1.33 1.29 1.31 1.39 1.26 1.23 1.29 1.18 1.04 0.91 0.79 0.74 0.66 0.58 0.53 0.48 0.43 0.40 0.40 0.42 0.42
0.86 0.86 0.90 0.89 0.92 0.81 0.73 0.71 0.75 0.92 1.14 1.32 1.36 1.34 1.40 1.34 1.29 1.23 1.18 1.14 1.14 1.17 1.19 1.27 1.24 1.10 0.96 0.91 0.93 0.83 0.77 0.68 0.62 0.59 0.52 0.46 0.42 0.43
0.91 0.93 0.95 0.98 0.96 1.05 1.02 0.92 0.87 0.87 0.96 0.89 0.98 1.25 1.34 1.33 1.32 1.34 1.33 1.22 1.13 1.08 1.05 1.11 1.10 1.03 0.93 0.87 0.91 0.83 0.75 0.70 0.66 0.64 0.63 0.61 0.57 0.55
0.86 0.87 0.92 0.95 1.14 1.18 1.09 1.06 0.99 0.95 1.09 1.09 1.10 1.14 1.19 1.17 1.18 1.26 1.31 1.24 1.19 1.09 0.98 0.91 0.91 0.98 1.00 0.93 0.90 0.92 0.84 0.78 0.74 0.72 0.72 0.72 0.71 0.69
0.93 0.89 1.05 1.01 1.02 0.97 0.93 1.11 1.09 0.98 0.90 0.87 0.89 0.94 0.95 0.99 1.04 1.06 1.17 1.17 1.09 1.08 0.95 0.87 0.87 0.94 0.96 0.89 0.81 0.79 0.80 0.84 0.83 0.80 0.80 0.80 0.79 0.71
0.93 0.95 0.93 1.01 0.84 0.79 0.83 0.98 1.12 1.05 1.00 1.03 0.97 0.92 0.89 0.89 0.84 0.88 0.99 1.06 1.06 1.03 0.89 0.82 0.85 0.87 0.82 0.74 0.72 0.67 0.62 0.63 0.64 0.65 0.67 0.72 0.76 0.71
0.82 0.75 0.74 0.81 0.67 0.62 0.61 0.74 0.91 0.92 0.93 1.01 0.98 0.92 0.86 0.83 0.80 0.78 0.83 0.89 0.91 0.91 0.90 0.85 0.83 0.82 0.77 0.65 0.60 0.60 0.58 0.55 0.54 0.55 0.52 0.62 0.65 0.68
0.62 0.62 0.55 0.51 0.51 0.47 0.51 0.60 0.66 0.79 0.92 0.96 0.87 0.81 0.81 0.84 0.83 0.79 0.75 0.74 0.75 0.73 0.72 0.71 0.76 0.82 0.81 0.70 0.61 0.58 0.58 0.58 0.53 0.51 0.52 0.52 0.52 0.55
0.41 0.35 0.33 0.36 0.43 0.45 0.46 0.48 0.54 0.74 0.91 0.90 0.83 0.77 0.79 0.81 0.86 0.87 0.83 0.77 0.74 0.74 0.69 0.67 0.69 0.73 0.72 0.67 0.63 0.59 0.61 0.59 0.55 0.55 0.57 0.56 0.53 0.50
0.52 0.45 0.38 0.37 0.38 0.42 0.45 0.50 0.62 0.72 0.81 0.77 0.76 0.73 0.74 0.80 0.84 0.87 0.91 0.86 0.79 0.75 0.78 0.80 0.80 0.79 0.75 0.72 0.70 0.65 0.65 0.64 0.62 0.61 0.59 0.56 0.53 0.50
0.51 0.52 0.52 0.53 0.53 0.52 0.50 0.47 0.48 0.56 0.63 0.69 0.69 0.70 0.69 0.68 0.68 0.72 0.78 0.80 0.78 0.74 0.71 0.72 0.78 0.85 0.83 0.78 0.69 0.63 0.68 0.70 0.70 0.68 0.62 0.55 0.52 0.55
0.44 0.46 0.46 0.47 0.47 0.45 0.43 0.40 0.38 0.38 0.45 0.53 0.64 0.69 0.71 0.69 0.67 0.63 0.61 0.62 0.61 0.60 0.60 0.59 0.61 0.65 0.69 0.68 0.67 0.56 0.55 0.62 0.65 0.62 0.59 0.54 0.48 0.52
0.28 0.33 0.32 0.32 0.31 0.31 0.29 0.27 0.27 0.28 0.30 0.32 0.41 0.54 0.67 0.76 0.77 0.72 0.66 0.64 0.62 0.57 0.55 0.51 0.49 0.48 0.51 0.52 0.50 0.47 0.47 0.50 0.53 0.52 0.49 0.49 0.46 0.49
0.11 0.14 0.15 0.15 0.18 0.18 0.17 0.17 0.18 0.20 0.23 0.24 0.26 0.30 0.40 0.54 0.65 0.70 0.73 0.79 0.76 0.69 0.66 0.62 0.58 0.59 0.51 0.49 0.45 0.38 0.37 0.38 0.39 0.38 0.38 0.41 0.41 0.41
0.05 0.07 0.08 0.08 0.10 0.11 0.10 0.10 0.10 0.12 0.15 0.17 0.18 0.20 0.24 0.31 0.41 0.50 0.55 0.60 0.64 0.67 0.68 0.69 0.67 0.65 0.60 0.56 0.48 0.39 0.38 0.38 0.40 0.43 0.38 0.37 0.35 0.34
0.05 0.06 0.06 0.07 0.08 0.10 0.15 0.17 0.13 0.10 0.12 0.14 0.16 0.17 0.18 0.21 0.25 0.32 0.38 0.42 0.47 0.51 0.55 0.58 0.57 0.55 0.53 0.52 0.51 0.48 0.43 0.40 0.40 0.39 0.38 0.44 0.41 0.32

GEFSNE_prec_meanprecacc_144.txt.gz
Total_Precipitation_Accumulation
2.10 2.16 2.16 2.20 2.04 1.89 1.86 1.94 2.04 1.82 1.67 1.48 1.26 1.09 1.15 1.15 1.21 1.01 0.93 0.91 0.79 0.71 0.64 0.54 0.49 0.51 0.55 0.65 0.72 0.75 0.81 0.94 1.25 1.51 1.34 1.17 1.08 1.14
1.87 1.94 1.98 2.03 2.04 2.01 1.96 1.94 1.90 1.85 1.75 1.56 1.28 1.01 1.08 1.14 1.25 1.06 1.06 1.13 0.95 0.78 0.68 0.59 0.54 0.49 0.47 0.47 0.46 0.43 0.45 0.50 0.73 1.23 1.34 1.19 1.15 1.23
1.63 1.67 1.78 1.84 2.01 2.04 2.00 1.95 1.93 1.85 1.70 1.60 1.37 1.13 1.11 1.17 1.21 1.14 1.17 1.15 0.98 0.88 0.77 0.70 0.62 0.58 0.55 0.52 0.48 0.40 0.35 0.34 0.37 0.53 0.75 0.84 0.99 1.21
1.41 1.43 1.54 1.62 1.76 1.89 1.98 1.89 1.89 1.84 1.82 1.76 1.53 1.31 1.22 1.21 1.23 1.19 1.11 1.11 1.08 1.01 0.89 0.82 0.75 0.68 0.63 0.56 0.52 0.48 0.45 0.41 0.39 0.39 0.47 0.59 0.70 0.84
1.19 1.21 1.26 1.35 1.48 1.60 1.71 1.81 1.81 1.75 1.85 1.83 1.62 1.38 1.25 1.22 1.24 1.21 1.14 1.19 1.11 1.08 1.01 0.90 0.85 0.77 0.71 0.69 0.63 0.57 0.50 0.48 0.45 0.46 0.47 0.52 0.60 0.66
0.95 0.94 0.96 0.99 1.11 1.26 1.38 1.53 1.68 1.80 1.88 1.90 1.75 1.47 1.29 1.26 1.29 1.34 1.32 1.23 1.22 1.11 1.10 1.04 1.02 0.96 0.85 0.79 0.70 0.62 0.57 0.55 0.52 0.50 0.49 0.49 0.47 0.48
0.93 0.84 0.78 0.77 0.86 0.95 1.07 1.32 1.52 1.68 1.81 1.87 1.79 1.63 1.45 1.37 1.30 1.29 1.37 1.44 1.43 1.28 1.22 1.14 1.07 0.94 0.83 0.76 0.69 0.61 0.56 0.50 0.46 0.43 0.41 0.38 0.38 0.39
0.90 0.90 0.89 0.83 0.72 0.67 0.73 0.89 1.13 1.35 1.52 1.63 1.68 1.57 1.42 1.38 1.41 1.40 1.37 1.42 1.49 1.35 1.29 1.36 1.28 1.11 0.98 0.84 0.79 0.71 0.62 0.57 0.53 0.48 0.44 0.43 0.44 0.44
0.87 0.87 0.90 0.89 0.93 0.83 0.76 0.73 0.77 0.94 1.18 1.37 1.41 1.39 1.46 1.40 1.35 1.30 1.27 1.25 1.25 1.27 1.28 1.34 1.32 1.18 1.02 0.95 0.97 0.86 0.80 0.71 0.66 0.64 0.58 0.51 0.47 0.45
0.92 0.94 0.98 1.01 0.98 1.08 1.05 0.96 0.89 0.88 0.97 0.90 1.01 1.28 1.39 1.40 1.40 1.40 1.41 1.31 1.24 1.21 1.17 1.22 1.18 1.10 0.99 0.92 0.95 0.86 0.78 0.73 0.69 0.67 0.67 0.65 0.62 0.59
0.88 0.89 0.94 0.98 1.17 1.20 1.12 1.10 1.03 0.97 1.10 1.10 1.11 1.16 1.22 1.23 1.24 1.32 1.37 1.31 1.27 1.20 1.10 1.02 1.00 1.05 1.06 0.98 0.94 0.95 0.87 0.81 0.76 0.75 0.74 0.74 0.74 0.72
0.94 0.90 1.05 1.02 1.03 0.99 0.95 1.14 1.12 1.02 0.93 0.89 0.91 0.95 0.96 1.02 1.08 1.10 1.22 1.22 1.15 1.15 1.03 0.97 0.96 1.01 1.03 0.94 0.86 0.83 0.83 0.86 0.85 0.83 0.82 0.82 0.81 0.74
0.94 0.96 0.94 1.02 0.85 0.80 0.85 1.00 1.14 1.07 1.03 1.06 1.00 0.94 0.91 0.91 0.87 0.91 1.04 1.10 1.11 1.08 0.94 0.88 0.92 0.95 0.89 0.80 0.77 0.71 0.65 0.65 0.65 0.66 0.69 0.74 0.78 0.73
0.83 0.76 0.75 0.82 0.68 0.63 0.61 0.75 0.92 0.93 0.95 1.02 1.00 0.94 0.88 0.85 0.82 0.81 0.85 0.91 0.94 0.95 0.94 0.88 0.87 0.87 0.83 0.71 0.65 0.63 0.61 0.57 0.55 0.55 0.53 0.63 0.66 0.70
0.63 0.63 0.55 0.52 0.52 0.48 0.51 0.61 0.67 0.80 0.94 0.98 0.88 0.81 0.82 0.84 0.84 0.81 0.77 0.76 0.77 0.75 0.74 0.73 0.78 0.85 0.85 0.74 0.65 0.61 0.61 0.60 0.55 0.53 0.53 0.53 0.53 0.56
0.41 0.35 0.34 0.37 0.43 0.46 0.46 0.48 0.54 0.75 0.92 0.91 0.83 0.78 0.79 0.82 0.87 0.88 0.85 0.78 0.76 0.75 0.71 0.69 0.71 0.76 0.75 0.70 0.66 0.62 0.63 0.62 0.58 0.58 0.59 0.57 0.54 0.51
0.53 0.46 0.39 0.38 0.39 0.43 0.46 0.51 0.63 0.73 0.83 0.78 0.77 0.74 0.75 0.81 0.84 0.88 0.92 0.88 0.80 0.76 0.79 0.82 0.82 0.81 0.78 0.75 0.72 0.68 0.68 0.67 0.66 0.66 0.63 0.59 0.55 0.52
0.52 0.54 0.53 0.54 0.54 0.53 0.51 0.48 0.49 0.57 0.65 0.70 0.70 0.70 0.69 0.69 0.69 0.73 0.80 0.82 0.80 0.76 0.72 0.73 0.79 0.86 0.85 0.81 0.71 0.66 0.71 0.72 0.72 0.71 0.66 0.60 0.56 0.58
0.45 0.47 0.48 0.49 0.48 0.47 0.44 0.42 0.39 0.40 0.46 0.55 0.65 0.70 0.71 0.70 0.68 0.64 0.62 0.64 0.63 0.63 0.61 0.60 0.62 0.67 0.71 0.70 0.68 0.58 0.57 0.64 0.67 0.63 0.60 0.55 0.50 0.54
0.28 0.33 0.34 0.34 0.33 0.34 0.31 0.29 0.29 0.31 0.33 0.35 0.44 0.56 0.69 0.78 0.78 0.74 0.68 0.66 0.64 0.59 0.56 0.53 0.50 0.50 0.53 0.53 0.51 0.47 0.48 0.51 0.55 0.53 0.50 0.50 0.48 0.51
0.12 0.15 0.15 0.17 0.20 0.20 0.20 0.20 0.21 0.24 0.27 0.29 0.30 0.33 0.43 0.56 0.67 0.72 0.77 0.83 0.79 0.72 0.68 0.64 0.59 0.61 0.53 0.51 0.47 0.39 0.38 0.40 0.41 0.40 0.40 0.43 0.43 0.42
0.07 0.08 0.09 0.09 0.12 0.14 0.14 0.14 0.15 0.17 0.20 0.22 0.23 0.25 0.29 0.34 0.43 0.52 0.57 0.62 0.68 0.71 0.71 0.71 0.69 0.67 0.62 0.59 0.51 0.42 0.40 0.40 0.42 0.45 0.42 0.40 0.36 0.35
0.06 0.08 0.09 0.10 0.11 0.14 0.20 0.23 0.20 0.18 0.20 0.23 0.24 0.25 0.24 0.26 0.30 0.36 0.41 0.45 0.49 0.53 0.58 0.61 0.61 0.58 0.57 0.56 0.55 0.52 0.46 0.42 0.42 0.41 0.40 0.46 0.42 0.33

GEFSNE_prec_meanprecacc_150.txt.gz
Total_Precipitation_Accumulation
2.10 2.17 2.17 2.22 2.07 1.92 1.87 1.95 2.05 1.83 1.68 1.49 1.28 1.11 1.18 1.17 1.24 1.04 0.99 0.95 0.83 0.75 0.67 0.56 0.54 0.58 0.63 0.73 0.81 0.85 0.91 1.03 1.33 1.60 1.40 1.23 1.12 1.17
1.88 1.95 2.00 2.05 2.06 2.02 1.98 1.95 1.92 1.86 1.76 1.57 1.29 1.03 1.11 1.17 1.28 1.09 1.10 1.20 1.00 0.83 0.71 0.62 0.58 0.55 0.53 0.53 0.51 0.49 0.51 0.56 0.78 1.29 1.40 1.25 1.19 1.26
1.65 1.68 1.79 1.85 2.02 2.06 2.01 1.96 1.93 1.85 1.70 1.61 1.38 1.15 1.14 1.21 1.25 1.17 1.20 1.20 1.03 0.93 0.81 0.74 0.66 0.65 0.63 0.57 0.52 0.43 0.37 0.37 0.40 0.58 0.79 0.88 1.03 1.24
1.42 1.44 1.56 1.63 1.77 1.89 1.99 1.90 1.90 1.85 1.82 1.76 1.55 1.32 1.23 1.24 1.27 1.23 1.15 1.14 1.12 1.07 0.94 0.85 0.79 0.74 0.73 0.63 0.56 0.50 0.46 0.43 0.41 0.41 0.50 0.62 0.74 0.88
1.20 1.22 1.27 1.36 1.50 1.62 1.73 1.82 1.83 1.76 1.85 1.84 1.63 1.39 1.26 1.24 1.27 1.23 1.19 1.25 1.16 1.13 1.07 0.95 0.89 0.81 0.81 0.78 0.67 0.59 0.52 0.49 0.47 0.48 0.50 0.54 0.62 0.69
0.96 0.95 0.97 1.01 1.14 1.28 1.39 1.54 1.69 1.82 1.90 1.91 1.76 1.47 1.30 1.28 1.31 1.36 1.35 1.27 1.27 1.16 1.14 1.09 1.06 1.00 0.90 0.87 0.75 0.64 0.59 0.56 0.54 0.52 0.52 0.52 0.50 0.51
0.94 0.86 0.79 0.78 0.87 0.96 1.08 1.33 1.53 1.68 1.82 1.88 1.80 1.63 1.46 1.38 1.32 1.31 1.40 1.49 1.49 1.34 1.27 1.17 1.10 0.97 0.87 0.82 0.76 0.66 0.58 0.53 0.48 0.45 0.43 0.42 0.41 0.42
0.90 0.90 0.89 0.84 0.73 0.68 0.74 0.90 1.14 1.36 1.54 1.65 1.69 1.58 1.43 1.39 1.43 1.43 1.40 1.46 1.53 1.40 1.35 1.40 1.32 1.16 1.02 0.88 0.85 0.76 0.66 0.60 0.55 0.50 0.47 0.46 0.47 0.47
0.87 0.87 0.91 0.89 0.93 0.83 0.76 0.74 0.78 0.95 1.19 1.40 1.43 1.40 1.48 1.41 1.37 1.33 1.30 1.29 1.29 1.32 1.34 1.39 1.38 1.26 1.08 1.01 1.03 0.92 0.84 0.75 0.70 0.66 0.61 0.54 0.50 0.49
0.92 0.94 0.98 1.02 0.98 1.08 1.05 0.96 0.90 0.89 0.98 0.93 1.03 1.29 1.40 1.42 1.42 1.43 1.44 1.35 1.29 1.27 1.23 1.28 1.24 1.18 1.07 0.99 1.02 0.92 0.83 0.77 0.72 0.70 0.69 0.68 0.65 0.63
0.88 0.89 0.95 0.99 1.17 1.21 1.12 1.10 1.03 0.98 1.11 1.11 1.12 1.17 1.24 1.25 1.27 1.35 1.41 1.36 1.32 1.26 1.17 1.08 1.06 1.13 1.16 1.07 1.03 1.05 0.95 0.87 0.80 0.77 0.77 0.77 0.76 0.75
0.94 0.90 1.06 1.03 1.04 0.99 0.95 1.14 1.13 1.03 0.94 0.90 0.91 0.96 0.98 1.03 1.10 1.13 1.26 1.26 1.19 1.22 1.10 1.05 1.02 1.08 1.14 1.07 0.95 0.91 0.91 0.93 0.91 0.86 0.85 0.85 0.84 0.76
0.95 0.97 0.94 1.02 0.85 0.80 0.85 1.00 1.15 1.09 1.05 1.07 1.00 0.95 0.92 0.92 0.88 0.94 1.08 1.15 1.16 1.14 1.00 0.94 1.00 1.03 0.97 0.93 0.92 0.81 0.71 0.71 0.71 0.70 0.72 0.77 0.80 0.76
0.84 0.76 0.75 0.82 0.68 0.63 0.62 0.75 0.93 0.95 0.96 1.03 1.01 0.95 0.89 0.86 0.83 0.83 0.91 0.98 1.00 1.02 1.03 0.96 0.94 0.94 0.91 0.80 0.78 0.78 0.72 0.65 0.61 0.59 0.56 0.66 0.70 0.73
0.64 0.63 0.56 0.53 0.52 0.48 0.52 0.61 0.68 0.81 0.95 0.99 0.89 0.82 0.83 0.86 0.86 0.84 0.80 0.82 0.84 0.84 0.84 0.82 0.85 0.91 0.91 0.81 0.74 0.71 0.72 0.72 0.63 0.59 0.58 0.56 0.55 0.58
0.42 0.36 0.35 0.38 0.44 0.46 0.47 0.49 0.55 0.75 0.93 0.92 0.84 0.79 0.80 0.83 0.89 0.91 0.88 0.82 0.81 0.81 0.79 0.77 0.78 0.82 0.79 0.73 0.72 0.70 0.71 0.71 0.66 0.64 0.64 0.61 0.57 0.53
0.55 0.47 0.40 0.39 0.40 0.44 0.46 0.52 0.63 0.73 0.83 0.79 0.79 0.76 0.76 0.83 0.87 0.90 0.95 0.92 0.84 0.80 0.84 0.87 0.88 0.87 0.82 0.78 0.76 0.73 0.74 0.73 0.72 0.71 0.67 0.63 0.58 0.54
0.53 0.55 0.54 0.55 0.56 0.54 0.52 0.49 0.50 0.58 0.65 0.72 0.72 0.72 0.72 0.72 0.72 0.76 0.82 0.86 0.84 0.80 0.75 0.76 0.84 0.93 0.92 0.86 0.75 0.71 0.76 0.77 0.77 0.76 0.71 0.64 0.59 0.60
0.46 0.48 0.48 0.50 0.50 0.48 0.46 0.44 0.41 0.41 0.48 0.57 0.68 0.73 0.75 0.74 0.72 0.69 0.66 0.67 0.66 0.66 0.65 0.63 0.65 0.71 0.77 0.76 0.72 0.61 0.62 0.69 0.72 0.69 0.65 0.60 0.54 0.57
0.29 0.34 0.34 0.35 0.35 0.36 0.34 0.32 0.31 0.34 0.36 0.38 0.47 0.60 0.73 0.82 0.83 0.80 0.73 0.69 0.67 0.62 0.59 0.56 0.53 0.53 0.56 0.57 0.54 0.50 0.50 0.54 0.58 0.57 0.54 0.54 0.52 0.56
0.13 0.16 0.17 0.19 0.22 0.23 0.23 0.23 0.25 0.27 0.31 0.32 0.34 0.38 0.48 0.61 0.72 0.78 0.82 0.87 0.82 0.74 0.69 0.65 0.61 0.63 0.56 0.55 0.51 0.42 0.40 0.42 0.43 0.42 0.43 0.45 0.45 0.45
0.08 0.10 0.11 0.12 0.15 0.17 0.17 0.18 0.19 0.22 0.25 0.27 0.27 0.30 0.34 0.41 0.50 0.58 0.63 0.68 0.72 0.73 0.73 0.72 0.70 0.69 0.65 0.62 0.54 0.45 0.43 0.43 0.44 0.47 0.45 0.44 0.40 0.37
0.09 0.10 0.11 0.12 0.14 0.17 0.24 0.27 0.24 0.23 0.25 0.29 0.30 0.30 0.31 0.34 0.38 0.45 0.50 0.53 0.56 0.59 0.62 0.64 0.63 0.60 0.59 0.58 0.57 0.53 0.49 0.46 0.46 0.45 0.42 0.49 0.46 0.37

GEFSNE_prec_meanprecacc_156.txt.gz
Total_Precipitation_Accumulation
2.11 2.17 2.18 2.22 2.08 1.92 1.88 1.96 2.05 1.84 1.68 1.50 1.29 1.13 1.20 1.20 1.29 1.13 1.05 0.98 0.84 0.76 0.69 0.59 0.57 0.63 0.73 0.83 0.94 0.99 1.05 1.17 1.46 1.74 1.57 1.40 1.27 1.27
1.88 1.95 2.00 2.06 2.06 2.03 1.98 1.96 1.92 1.86 1.76 1.57 1.30 1.04 1.12 1.18 1.30 1.14 1.16 1.24 1.02 0.85 0.73 0.64 0.60 0.58 0.59 0.63 0.62 0.60 0.62 0.68 0.89 1.40 1.50 1.36 1.32 1.38
1.65 1.68 1.80 1.86 2.02 2.06 2.01 1.96 1.94 1.86 1.70 1.61 1.38 1.16 1.14 1.22 1.28 1.20 1.24 1.24 1.06 0.96 0.84 0.77 0.68 0.69 0.67 0.66 0.64 0.54 0.49 0.48 0.50 0.66 0.87 0.95 1.09 1.31
1.43 1.45 1.56 1.63 1.77 1.89 1.99 1.90 1.90 1.85 1.83 1.76 1.55 1.33 1.24 1.25 1.30 1.27 1.19 1.18 1.16 1.11 0.98 0.89 0.83 0.78 0.77 0.69 0.67 0.62 0.56 0.53 0.49 0.49 0.57 0.67 0.79 0.92
1.21 1.23 1.29 1.37 1.50 1.62 1.73 1.82 1.83 1.76 1.85 1.84 1.63 1.39 1.26 1.24 1.28 1.26 1.23 1.30 1.20 1.18 1.12 1.00 0.94 0.86 0.87 0.84 0.76 0.70 0.60 0.54 0.52 0.53 0.56 0.60 0.67 0.74
0.96 0.96 0.98 1.01 1.14 1.28 1.39 1.54 1.70 1.82 1.90 1.91 1.76 1.48 1.30 1.28 1.31 1.37 1.37 1.31 1.32 1.21 1.20 1.15 1.13 1.07 0.97 0.96 0.84 0.73 0.66 0.61 0.56 0.54 0.55 0.55 0.53 0.54
0.95 0.87 0.80 0.79 0.87 0.97 1.08 1.34 1.54 1.69 1.83 1.89 1.81 1.64 1.46 1.38 1.32 1.32 1.42 1.51 1.51 1.37 1.31 1.21 1.15 1.02 0.92 0.92 0.87 0.74 0.65 0.58 0.51 0.47 0.45 0.44 0.43 0.44
0.90 0.90 0.89 0.84 0.73 0.69 0.75 0.92 1.14 1.36 1.54 1.65 1.69 1.58 1.43 1.39 1.43 1.44 1.42 1.48 1.55 1.41 1.37 1.44 1.37 1.20 1.05 0.94 0.97 0.86 0.74 0.67 0.61 0.54 0.50 0.49 0.50 0.49
0.87 0.87 0.91 0.90 0.94 0.84 0.77 0.75 0.78 0.95 1.20 1.40 1.43 1.41 1.48 1.41 1.37 1.34 1.31 1.30 1.30 1.34 1.37 1.42 1.42 1.30 1.11 1.05 1.13 1.04 0.93 0.83 0.77 0.72 0.66 0.60 0.55 0.53
0.92 0.94 0.98 1.02 0.99 1.09 1.06 0.97 0.90 0.89 0.98 0.93 1.03 1.30 1.41 1.42 1.43 1.44 1.46 1.38 1.32 1.30 1.27 1.32 1.28 1.23 1.11 1.03 1.09 1.02 0.92 0.85 0.80 0.76 0.75 0.75 0.72 0.69
0.88 0.89 0.95 0.99 1.18 1.21 1.12 1.11 1.04 0.98 1.11 1.12 1.13 1.18 1.24 1.26 1.28 1.36 1.43 1.38 1.33 1.27 1.20 1.12 1.09 1.18 1.23 1.14 1.09 1.13 1.04 0.94 0.87 0.86 0.84 0.83 0.84 0.82
0.94 0.91 1.06 1.03 1.04 1.00 0.96 1.15 1.13 1.03 0.94 0.91 0.92 0.96 0.98 1.04 1.11 1.14 1.28 1.29 1.22 1.24 1.13 1.08 1.06 1.13 1.21 1.15 1.02 0.98 1.01 1.02 0.97 0.94 0.94 0.93 0.91 0.83
0.95 0.97 0.95 1.03 0.86 0.81 0.86 1.01 1.15 1.09 1.05 1.07 1.01 0.95 0.92 0.93 0.89 0.95 1.09 1.17 1.18 1.17 1.04 1.00 1.05 1.08 1.02 0.97 0.97 0.88 0.80 0.80 0.78 0.77 0.79 0.85 0.89 0.83
0.84 0.76 0.75 0.83 0.69 0.64 0.62 0.76 0.93 0.95 0.96 1.04 1.02 0.95 0.89 0.86 0.84 0.84 0.92 1.00 1.02 1.04 1.06 1.01 1.00 1.00 0.98 0.85 0.82 0.83 0.79 0.75 0.72 0.68 0.62 0.75 0.79 0.83
0.64 0.63 0.56 0.53 0.53 0.49 0.52 0.62 0.68 0.82 0.96 0.99 0.89 0.83 0.83 0.86 0.87 0.84 0.81 0.84 0.87 0.87 0.88 0.86 0.91 0.98 0.99 0.89 0.78 0.76 0.79 0.81 0.76 0.72 0.69 0.64 0.62 0.66
0.42 0.36 0.35 0.38 0.44 0.46 0.47 0.49 0.55 0.76 0.94 0.93 0.85 0.79 0.81 0.84 0.90 0.92 0.89 0.83 0.83 0.85 0.84 0.84 0.85 0.89 0.87 0.81 0.79 0.76 0.75 0.77 0.77 0.79 0.81 0.76 0.67 0.61
0.55 0.47 0.40 0.39 0.40 0.44 0.47 0.52 0.64 0.75 0.85 0.80 0.80 0.77 0.78 0.84 0.88 0.92 0.97 0.94 0.87 0.83 0.89 0.95 0.98 0.97 0.92 0.87 0.83 0.80 0.82 0.79 0.79 0.82 0.83 0.81 0.75 0.67
0.54 0.55 0.54 0.56 0.56 0.55 0.53 0.50 0.51 0.60 0.67 0.73 0.74 0.74 0.74 0.74 0.74 0.78 0.85 0.89 0.88 0.84 0.80 0.83 0.93 1.03 1.03 0.95 0.83 0.78 0.84 0.85 0.85 0.84 0.81 0.76 0.72 0.73
0.46 0.48 0.49 0.50 0.51 0.49 0.47 0.45 0.43 0.43 0.50 0.59 0.70 0.76 0.78 0.77 0.76 0.71 0.69 0.71 0.70 0.71 0.70 0.68 0.73 0.80 0.86 0.84 0.79 0.67 0.69 0.77 0.79 0.76 0.73 0.68 0.63 0.65
0.29 0.34 0.35 0.35 0.36 0.37 0.35 0.33 0.33 0.36 0.38 0.41 0.50 0.63 0.78 0.87 0.87 0.83 0.76 0.72 0.71 0.67 0.66 0.64 0.61 0.61 0.64 0.64 0.60 0.56 0.56 0.60 0.64 0.62 0.60 0.60 0.59 0.64
0.13 0.16 0.17 0.19 0.23 0.24 0.25 0.25 0.26 0.29 0.33 0.36 0.38 0.43 0.53 0.68 0.78 0.83 0.86 0.91 0.87 0.79 0.76 0.73 0.70 0.72 0.65 0.64 0.57 0.46 0.45 0.47 0.48 0.47 0.48 0.50 0.50 0.49
0.08 0.11 0.12 0.12 0.16 0.18 0.19 0.20 0.22 0.24 0.27 0.30 0.33 0.36 0.42 0.49 0.58 0.66 0.70 0.73 0.78 0.80 0.79 0.78 0.78 0.78 0.73 0.71 0.62 0.51 0.48 0.47 0.49 0.53 0.51 0.50 0.45 0.42
0.09 0.10 0.12 0.13 0.15 0.19 0.26 0.29 0.27 0.26 0.28 0.32 0.35 0.37 0.39 0.43 0.47 0.53 0.58 0.61 0.63 0.66 0.69 0.71 0.70 0.68 0.66 0.64 0.62 0.59 0.55 0.52 0.51 0.50 0.47 0.54 0.51 0.42

GEFSNE_prec_meanprecacc_162.txt.gz
Total_Precipitation_Accumulation
2.11 2.17 2.18 2.23 2.08 1.93 1.89 1.97 2.07 1.85 1.69 1.51 1.30 1.13 1.21 1.22 1.32 1.15 1.08 1.01 0.87 0.78 0.72 0.62 0.60 0.67 0.77 0.88 1.00 1.07 1.14 1.27 1.62 1.94 1.76 1.57 1.42 1.38
1.88 1.96 2.00 2.06 2.06 2.03 1.99 1.97 1.93 1.88 1.77 1.58 1.31 1.05 1.12 1.19 1.33 1.15 1.18 1.26 1.04 0.87 0.75 0.67 0.63 0.62 0.63 0.67 0.66 0.65 0.67 0.73 0.97 1.54 1.73 1.58 1.51 1.55
1.65 1.69 1.80 1.86 2.03 2.06 2.02 1.97 1.94 1.86 1.71 1.62 1.38 1.16 1.15 1.23 1.29 1.21 1.25 1.26 1.08 0.98 0.87 0.79 0.71 0.72 0.70 0.70 0.68 0.59 0.54 0.52 0.55 0.74 1.00 1.11 1.24 1.45
1.43 1.45 1.57 1.64 1.77 1.90 2.00 1.91 1.90 1.85 1.83 1.77 1.55 1.33 1.24 1.26 1.31 1.28 1.19 1.19 1.18 1.14 1.01 0.92 0.85 0.80 0.80 0.73 0.72 0.67 0.62 0.59 0.55 0.54 0.63 0.77 0.90 1.03
1.21 1.24 1.29 1.37 1.50 1.62 1.73 1.82 1.83 1.77 1.86 1.84 1.63 1.39 1.27 1.25 1.29 1.27 1.24 1.31 1.21 1.20 1.15 1.02 0.96 0.88 0.89 0.86 0.79 0.74 0.65 0.61 0.59 0.58 0.61 0.66 0.75 0.83
0.97 0.96 0.98 1.02 1.14 1.28 1.39 1.54 1.70 1.82 1.90 1.92 1.76 1.48 1.30 1.28 1.32 1.37 1.38 1.33 1.34 1.23 1.22 1.18 1.16 1.09 1.00 0.99 0.87 0.77 0.71 0.68 0.64 0.61 0.60 0.61 0.61 0.61
0.95 0.87 0.80 0.79 0.87 0.97 1.08 1.34 1.54 1.69 1.83 1.89 1.81 1.64 1.46 1.38 1.32 1.33 1.42 1.52 1.53 1.38 1.32 1.23 1.19 1.05 0.94 0.94 0.89 0.78 0.70 0.66 0.61 0.55 0.52 0.49 0.49 0.51
0.90 0.91 0.90 0.85 0.74 0.69 0.76 0.92 1.15 1.36 1.54 1.66 1.69 1.58 1.43 1.40 1.44 1.44 1.43 1.50 1.56 1.42 1.39 1.45 1.39 1.24 1.09 0.96 0.99 0.88 0.76 0.71 0.68 0.63 0.58 0.55 0.54 0.54
0.87 0.87 0.91 0.90 0.94 0.84 0.77 0.75 0.78 0.96 1.20 1.41 1.44 1.41 1.48 1.41 1.38 1.34 1.32 1.31 1.32 1.35 1.38 1.43 1.43 1.31 1.14 1.07 1.14 1.06 0.96 0.86 0.80 0.78 0.75 0.67 0.60 0.57
0.92 0.94 0.98 1.02 0.99 1.09 1.06 0.97 0.90 0.89 0.98 0.93 1.03 1.30 1.41 1.43 1.43 1.44 1.47 1.39 1.33 1.32 1.28 1.33 1.28 1.24 1.12 1.05 1.10 1.04 0.95 0.88 0.83 0.81 0.81 0.82 0.80 0.75
0.88 0.90 0.95 0.99 1.18 1.21 1.12 1.11 1.04 0.98 1.11 1.12 1.13 1.18 1.25 1.26 1.28 1.37 1.44 1.39 1.34 1.28 1.21 1.13 1.10 1.19 1.24 1.14 1.10 1.15 1.08 0.98 0.91 0.90 0.89 0.89 0.92 0.91
0.94 0.91 1.06 1.03 1.05 1.00 0.96 1.15 1.13 1.03 0.94 0.91 0.92 0.97 0.98 1.04 1.11 1.15 1.28 1.30 1.24 1.25 1.14 1.10 1.07 1.15 1.22 1.15 1.03 1.00 1.04 1.08 1.03 0.98 0.99 0.99 0.99 0.92
0.95 0.97 0.95 1.03 0.86 0.81 0.86 1.01 1.16 1.10 1.05 1.08 1.01 0.95 0.93 0.93 0.89 0.95 1.09 1.18 1.20 1.19 1.07 1.03 1.08 1.11 1.05 0.99 0.99 0.89 0.82 0.84 0.85 0.84 0.85 0.91 0.95 0.89
0.84 0.76 0.75 0.83 0.69 0.64 0.63 0.76 0.94 0.96 0.97 1.04 1.02 0.95 0.90 0.87 0.84 0.84 0.92 1.01 1.04 1.06 1.08 1.04 1.03 1.04 1.02 0.88 0.85 0.85 0.81 0.77 0.76 0.75 0.71 0.83 0.87 0.89
0.64 0.63 0.56 0.53 0.53 0.49 0.52 0.62 0.69 0.82 0.96 1.00 0.90 0.83 0.84 0.87 0.87 0.86 0.82 0.85 0.88 0.88 0.89 0.88 0.93 1.01 1.04 0.94 0.83 0.79 0.82 0.84 0.79 0.78 0.76 0.73 0.70 0.73
0.43 0.36 0.35 0.38 0.44 0.47 0.48 0.50 0.56 0.77 0.95 0.93 0.86 0.80 0.81 0.85 0.91 0.94 0.90 0.85 0.85 0.87 0.86 0.85 0.87 0.92 0.92 0.86 0.85 0.82 0.81 0.81 0.80 0.83 0.85 0.83 0.75 0.67
0.55 0.47 0.41 0.39 0.41 0.44 0.47 0.53 0.64 0.75 0.85 0.81 0.81 0.78 0.79 0.85 0.90 0.94 0.99 0.96 0.89 0.85 0.91 0.97 1.01 1.00 0.96 0.93 0.90 0.86 0.87 0.85 0.83 0.86 0.87 0.87 0.82 0.74
0.54 0.55 0.54 0.56 0.56 0.55 0.54 0.51 0.52 0.60 0.68 0.74 0.75 0.76 0.75 0.76 0.76 0.81 0.88 0.92 0.91 0.87 0.82 0.86 0.96 1.07 1.07 1.01 0.89 0.84 0.90 0.91 0.90 0.90 0.86 0.81 0.77 0.79
0.46 0.48 0.49 0.50 0.51 0.50 0.48 0.46 0.44 0.44 0.51 0.61 0.71 0.77 0.80 0.79 0.78 0.75 0.73 0.75 0.74 0.74 0.73 0.71 0.77 0.85 0.92 0.91 0.85 0.73 0.75 0.82 0.85 0.82 0.79 0.73 0.67 0.70
0.30 0.34 0.35 0.35 0.36 0.38 0.36 0.34 0.34 0.37 0.40 0.43 0.52 0.65 0.80 0.89 0.90 0.87 0.81 0.78 0.76 0.71 0.70 0.67 0.64 0.65 0.69 0.70 0.68 0.64 0.63 0.68 0.72 0.69 0.66 0.65 0.65 0.71
0.14 0.16 0.18 0.19 0.23 0.25 0.26 0.26 0.28 0.31 0.35 0.38 0.40 0.44 0.55 0.70 0.81 0.86 0.91 0.97 0.93 0.84 0.80 0.77 0.73 0.76 0.71 0.73 0.68 0.56 0.53 0.55 0.57 0.55 0.54 0.57 0.57 0.57
0.09 0.11 0.12 0.13 0.16 0.19 0.20 0.22 0.23 0.25 0.29 0.32 0.35 0.38 0.44 0.52 0.61 0.70 0.75 0.79 0.84 0.86 0.84 0.82 0.82 0.83 0.79 0.80 0.73 0.61 0.56 0.55 0.57 0.61 0.59 0.58 0.52 0.48
0.09 0.11 0.12 0.14 0.15 0.20 0.27 0.31 0.29 0.28 0.30 0.34 0.38 0.40 0.42 0.47 0.51 0.58 0.63 0.66 0.70 0.72 0.75 0.76 0.75 0.75 0.74 0.72 0.73 0.72 0.66 0.60 0.58 0.57 0.52 0.60 0.58 0.48

GEFSNE_prec_meanprecacc_168.txt.gz
Total_Precipitation_Accumulation
2.11 2.18 2.19 2.24 2.09 1.94 1.90 1.99 2.11 1.90 1.73 1.54 1.32 1.16 1.24 1.25 1.33 1.16 1.09 1.03 0.88 0.80 0.74 0.65 0.63 0.69 0.82 0.97 1.11 1.14 1.20 1.35 1.70 2.01 1.82 1.64 1.49 1.45
1.89 1.96 2.01 2.06 2.07 2.04 2.00 1.98 1.96 1.91 1.80 1.60 1.33 1.07 1.15 1.22 1.35 1.17 1.19 1.28 1.05 0.88 0.77 0.70 0.66 0.64 0.65 0.70 0.70 0.69 0.70 0.77 1.02 1.59 1.77 1.64 1.57 1.62
1.66 1.69 1.80 1.86 2.03 2.07 2.03 1.98 1.96 1.89 1.73 1.64 1.40 1.17 1.17 1.26 1.32 1.23 1.26 1.28 1.10 0.99 0.87 0.81 0.73 0.74 0.71 0.71 0.70 0.61 0.56 0.55 0.59 0.78 1.04 1.16 1.32 1.54
1.45 1.47 1.57 1.64 1.77 1.90 2.00 1.91 1.92 1.87 1.85 1.79 1.57 1.34 1.26 1.28 1.34 1.30 1.21 1.20 1.18 1.15 1.02 0.93 0.87 0.82 0.82 0.74 0.73 0.68 0.63 0.62 0.59 0.59 0.69 0.81 0.96 1.12
1.22 1.25 1.30 1.38 1.51 1.63 1.74 1.83 1.84 1.77 1.86 1.85 1.64 1.39 1.27 1.26 1.30 1.29 1.25 1.32 1.21 1.21 1.16 1.03 0.97 0.90 0.91 0.88 0.80 0.76 0.66 0.62 0.62 0.63 0.66 0.71 0.79 0.89
0.97 0.97 0.99 1.03 1.15 1.29 1.39 1.55 1.70 1.83 1.91 1.93 1.78 1.49 1.31 1.29 1.34 1.39 1.39 1.34 1.34 1.23 1.22 1.19 1.17 1.10 1.02 1.01 0.89 0.79 0.73 0.69 0.66 0.64 0.65 0.67 0.66 0.66
0.96 0.87 0.81 0.80 0.90 0.99 1.09 1.35 1.55 1.70 1.85 1.90 1.82 1.65 1.47 1.40 1.34 1.34 1.43 1.53 1.54 1.39 1.33 1.24 1.20 1.06 0.95 0.96 0.92 0.80 0.72 0.67 0.63 0.58 0.56 0.54 0.54 0.56
0.91 0.91 0.90 0.85 0.74 0.70 0.77 0.94 1.17 1.38 1.56 1.68 1.71 1.59 1.44 1.41 1.45 1.45 1.44 1.51 1.57 1.43 1.39 1.46 1.39 1.25 1.10 0.98 1.02 0.90 0.78 0.73 0.70 0.66 0.61 0.59 0.59 0.58
0.87 0.87 0.91 0.90 0.94 0.84 0.77 0.75 0.79 0.97 1.21 1.42 1.45 1.41 1.49 1.42 1.39 1.35 1.33 1.33 1.35 1.37 1.39 1.44 1.44 1.32 1.15 1.08 1.16 1.08 0.98 0.87 0.81 0.80 0.76 0.69 0.64 0.61
0.92 0.94 0.98 1.02 0.99 1.09 1.06 0.97 0.90 0.89 0.99 0.94 1.04 1.30 1.41 1.43 1.44 1.46 1.49 1.41 1.35 1.33 1.29 1.33 1.29 1.24 1.13 1.06 1.11 1.05 0.96 0.88 0.84 0.81 0.83 0.84 0.82 0.79
0.88 0.90 0.95 0.99 1.18 1.22 1.13 1.11 1.04 0.99 1.12 1.12 1.13 1.19 1.25 1.26 1.29 1.38 1.45 1.40 1.35 1.29 1.22 1.14 1.11 1.19 1.24 1.15 1.11 1.16 1.09 0.99 0.91 0.91 0.90 0.91 0.95 0.95
0.94 0.91 1.06 1.03 1.05 1.00 0.97 1.16 1.14 1.04 0.95 0.91 0.92 0.97 0.99 1.04 1.12 1.16 1.30 1.32 1.26 1.27 1.17 1.11 1.08 1.16 1.23 1.16 1.04 1.01 1.05 1.09 1.04 0.99 1.00 1.00 1.01 0.95
0.95 0.97 0.95 1.03 0.86 0.81 0.86 1.01 1.16 1.10 1.06 1.08 1.01 0.96 0.93 0.93 0.90 0.95 1.10 1.19 1.21 1.21 1.09 1.06 1.10 1.13 1.07 1.00 1.00 0.91 0.83 0.86 0.86 0.84 0.86 0.92 0.97 0.92
0.84 0.76 0.75 0.83 0.69 0.64 0.63 0.76 0.94 0.96 0.97 1.05 1.03 0.96 0.90 0.87 0.85 0.85 0.93 1.01 1.04 1.07 1.09 1.06 1.06 1.07 1.05 0.91 0.86 0.87 0.83 0.80 0.78 0.77 0.71 0.84 0.89 0.93
0.64 0.64 0.57 0.53 0.53 0.49 0.53 0.62 0.69 0.83 0.97 1.01 0.91 0.84 0.84 0.87 0.88 0.86 0.83 0.85 0.89 0.89 0.90 0.89 0.95 1.04 1.08 0.97 0.86 0.82 0.84 0.86 0.82 0.80 0.78 0.75 0.73 0.78
0.43 0.37 0.35 0.38 0.45 0.47 0.48 0.50 0.56 0.77 0.95 0.94 0.86 0.81 0.82 0.86 0.92 0.95 0.92 0.86 0.86 0.88 0.87 0.86 0.88 0.94 0.94 0.89 0.88 0.85 0.84 0.84 0.82 0.86 0.88 0.85 0.78 0.71
0.55 0.47 0.41 0.39 0.41 0.44 0.47 0.53 0.65 0.75 0.86 0.81 0.81 0.79 0.80 0.86 0.90 0.95 1.01 0.97 0.90 0.86 0.92 0.98 1.02 1.02 0.98 0.96 0.93 0.89 0.91 0.88 0.86 0.89 0.91 0.91 0.85 0.77
0.54 0.55 0.55 0.56 0.56 0.55 0.54 0.51 0.52 0.61 0.68 0.75 0.76 0.77 0.77 0.77 0.77 0.81 0.89 0.94 0.92 0.88 0.84 0.88 0.99 1.09 1.10 1.03 0.92 0.87 0.93 0.94 0.94 0.94 0.91 0.86 0.82 0.81
0.46 0.48 0.49 0.51 0.51 0.50 0.48 0.46 0.44 0.44 0.51 0.62 0.73 0.79 0.81 0.81 0.80 0.76 0.74 0.76 0.76 0.76 0.76 0.75 0.81 0.89 0.96 0.94 0.87 0.76 0.79 0.87 0.89 0.86 0.83 0.79 0.73 0.74
0.30 0.35 0.35 0.36 0.37 0.38 0.37 0.35 0.34 0.37 0.40 0.43 0.53 0.67 0.82 0.92 0.93 0.90 0.83 0.80 0.79 0.74 0.73 0.71 0.68 0.70 0.75 0.75 0.72 0.67 0.67 0.73 0.77 0.74 0.70 0.72 0.73 0.80
0.14 0.17 0.18 0.20 0.24 0.26 0.27 0.27 0.29 0.31 0.35 0.38 0.42 0.47 0.58 0.74 0.84 0.89 0.94 1.00 0.97 0.89 0.84 0.82 0.79 0.81 0.77 0.78 0.72 0.59 0.56 0.60 0.63 0.61 0.60 0.63 0.65 0.67
0.10 0.13 0.14 0.15 0.18 0.21 0.22 0.23 0.25 0.27 0.30 0.34 0.36 0.41 0.48 0.56 0.65 0.74 0.79 0.84 0.90 0.92 0.90 0.88 0.88 0.89 0.85 0.85 0.78 0.65 0.59 0.59 0.62 0.68 0.67 0.68 0.62 0.57
0.11 0.12 0.14 0.16 0.18 0.22 0.30 0.34 0.32 0.30 0.33 0.37 0.41 0.43 0.46 0.51 0.55 0.64 0.69 0.73 0.77 0.80 0.81 0.82 0.82 0.81 0.79 0.77 0.77 0.75 0.69 0.65 0.64 0.63 0.58 0.67 0.67 0.59

GEFSNE_prec_meanprecacc_174.txt.gz
Total_Precipitation_Accumulation
2.11 2.18 2.19 2.24 2.10 1.95 1.90 2.00 2.12 1.91 1.76 1.56 1.33 1.16 1.26 1.27 1.35 1.17 1.10 1.05 0.94 0.87 0.80 0.68 0.65 0.72 0.91 1.19 1.28 1.21 1.24 1.42 1.79 2.11 1.91 1.71 1.55 1.51
1.89 1.96 2.01 2.06 2.07 2.04 2.00 1.99 1.96 1.91 1.80 1.62 1.34 1.09 1.17 1.23 1.36 1.17 1.20 1.29 1.08 0.93 0.80 0.72 0.67 0.67 0.74 0.87 0.94 0.82 0.74 0.79 1.05 1.64 1.84 1.71 1.64 1.68
1.66 1.69 1.81 1.86 2.03 2.07 2.03 1.98 1.97 1.89 1.73 1.64 1.40 1.18 1.18 1.26 1.33 1.24 1.28 1.28 1.11 1.02 0.91 0.84 0.75 0.76 0.77 0.82 0.89 0.81 0.68 0.59 0.61 0.80 1.06 1.19 1.36 1.59
1.45 1.47 1.58 1.64 1.78 1.90 2.00 1.91 1.92 1.87 1.85 1.79 1.57 1.35 1.26 1.29 1.35 1.31 1.23 1.22 1.20 1.16 1.04 0.95 0.89 0.84 0.86 0.81 0.86 0.87 0.81 0.70 0.63 0.62 0.71 0.84 0.98 1.15
1.22 1.25 1.31 1.38 1.51 1.63 1.74 1.83 1.84 1.77 1.87 1.85 1.64 1.40 1.28 1.28 1.31 1.29 1.26 1.33 1.23 1.22 1.17 1.04 0.99 0.92 0.94 0.93 0.88 0.88 0.80 0.73 0.67 0.66 0.69 0.74 0.83 0.91
0.98 0.97 1.00 1.03 1.15 1.29 1.40 1.55 1.71 1.83 1.91 1.93 1.78 1.49 1.31 1.29 1.34 1.40 1.40 1.34 1.35 1.24 1.23 1.19 1.17 1.11 1.03 1.04 0.94 0.85 0.80 0.77 0.71 0.68 0.67 0.69 0.69 0.70
0.96 0.87 0.81 0.81 0.91 1.00 1.10 1.35 1.55 1.71 1.85 1.91 1.83 1.65 1.48 1.40 1.34 1.34 1.44 1.54 1.55 1.39 1.33 1.24 1.20 1.06 0.96 0.97 0.94 0.84 0.76 0.71 0.66 0.61 0.57 0.55 0.56 0.60
0.91 0.91 0.90 0.85 0.75 0.71 0.78 0.95 1.18 1.39 1.57 1.69 1.71 1.59 1.44 1.41 1.45 1.45 1.44 1.51 1.57 1.43 1.39 1.46 1.39 1.25 1.10 0.98 1.02 0.92 0.81 0.76 0.73 0.68 0.63 0.61 0.61 0.61
0.87 0.87 0.91 0.91 0.95 0.84 0.78 0.76 0.80 0.97 1.22 1.43 1.45 1.42 1.49 1.43 1.39 1.35 1.33 1.33 1.35 1.37 1.39 1.44 1.44 1.32 1.15 1.09 1.16 1.08 0.99 0.89 0.84 0.82 0.79 0.71 0.66 0.63
0.92 0.94 0.98 1.02 0.99 1.09 1.06 0.97 0.90 0.89 0.99 0.94 1.04 1.31 1.42 1.44 1.45 1.46 1.50 1.42 1.35 1.33 1.29 1.34 1.29 1.24 1.13 1.06 1.11 1.05 0.97 0.90 0.86 0.84 0.86 0.86 0.84 0.80
0.88 0.90 0.95 0.99 1.18 1.22 1.13 1.11 1.04 0.99 1.12 1.12 1.14 1.19 1.26 1.27 1.30 1.39 1.46 1.41 1.36 1.30 1.22 1.14 1.11 1.19 1.24 1.15 1.11 1.16 1.09 0.99 0.93 0.93 0.92 0.93 0.97 0.97
0.94 0.91 1.06 1.03 1.05 1.00 0.97 1.16 1.14 1.04 0.95 0.91 0.92 0.97 0.99 1.04 1.12 1.16 1.31 1.32 1.27 1.28 1.17 1.12 1.09 1.16 1.23 1.16 1.04 1.01 1.05 1.09 1.05 1.00 1.02 1.02 1.03 0.97
0.95 0.97 0.95 1.03 0.86 0.82 0.86 1.01 1.16 1.10 1.06 1.08 1.01 0.96 0.93 0.93 0.90 0.96 1.10 1.20 1.22 1.21 1.10 1.06 1.11 1.14 1.08 1.00 1.00 0.91 0.84 0.86 0.87 0.86 0.87 0.93 0.99 0.93
0.84 0.76 0.75 0.83 0.69 0.64 0.63 0.76 0.94 0.96 0.97 1.05 1.03 0.96 0.90 0.87 0.85 0.85 0.93 1.02 1.05 1.07 1.09 1.06 1.06 1.08 1.06 0.91 0.87 0.87 0.83 0.80 0.79 0.78 0.73 0.86 0.90 0.95
0.64 0.64 0.57 0.54 0.53 0.49 0.53 0.62 0.69 0.83 0.97 1.01 0.91 0.84 0.84 0.87 0.88 0.86 0.83 0.86 0.89 0.89 0.90 0.89 0.95 1.04 1.08 0.98 0.87 0.83 0.85 0.87 0.82 0.80 0.79 0.76 0.75 0.79
0.43 0.37 0.35 0.38 0.45 0.47 0.48 0.50 0.56 0.77 0.95 0.95 0.87 0.81 0.82 0.86 0.93 0.95 0.92 0.86 0.86 0.88 0.87 0.86 0.88 0.95 0.94 0.89 0.88 0.86 0.85 0.85 0.83 0.87 0.90 0.86 0.79 0.72
0.55 0.47 0.41 0.39 0.41 0.44 0.47 0.53 0.65 0.76 0.86 0.82 0.82 0.79 0.80 0.86 0.91 0.95 1.01 0.98 0.91 0.87 0.93 0.99 1.02 1.03 0.99 0.96 0.93 0.89 0.91 0.89 0.88 0.91 0.93 0.92 0.86 0.78
0.54 0.55 0.55 0.56 0.57 0.55 0.54 0.51 0.52 0.61 0.69 0.75 0.76 0.77 0.77 0.77 0.78 0.82 0.89 0.94 0.93 0.89 0.85 0.89 1.00 1.10 1.11 1.03 0.92 0.88 0.94 0.95 0.95 0.95 0.92 0.87 0.82 0.82
0.46 0.48 0.49 0.51 0.51 0.50 0.48 0.46 0.44 0.44 0.51 0.62 0.73 0.79 0.82 0.81 0.80 0.77 0.75 0.77 0.77 0.77 0.77 0.76 0.82 0.90 0.97 0.94 0.87 0.76 0.79 0.87 0.91 0.88 0.85 0.81 0.74 0.75
0.30 0.35 0.35 0.36 0.37 0.39 0.37 0.35 0.35 0.38 0.40 0.44 0.54 0.67 0.83 0.92 0.93 0.90 0.84 0.81 0.81 0.76 0.75 0.73 0.70 0.72 0.77 0.77 0.73 0.67 0.67 0.74 0.78 0.76 0.72 0.74 0.74 0.81
0.14 0.17 0.18 0.20 0.24 0.26 0.27 0.28 0.29 0.32 0.36 0.39 0.42 0.47 0.59 0.75 0.85 0.90 0.96 1.02 0.99 0.93 0.88 0.86 0.82 0.84 0.80 0.81 0.74 0.59 0.57 0.61 0.64 0.63 0.63 0.66 0.68 0.69
0.11 0.13 0.14 0.15 0.18 0.21 0.22 0.24 0.25 0.28 0.31 0.35 0.38 0.42 0.49 0.57 0.67 0.76 0.81 0.87 0.93 0.96 0.95 0.93 0.93 0.94 0.90 0.89 0.80 0.67 0.61 0.61 0.64 0.70 0.69 0.71 0.65 0.61
0.11 0.13 0.14 0.16 0.18 0.22 0.30 0.34 0.32 0.31 0.34 0.38 0.43 0.45 0.48 0.53 0.58 0.66 0.72 0.76 0.82 0.84 0.85 0.87 0.87 0.86 0.84 0.81 0.80 0.78 0.72 0.68 0.67 0.65 0.61 0.70 0.71 0.62

GEFSNE_prec_meanprecacc_180.txt.gz
Total_Precipitation_Accumulation
2.11 2.19 2.20 2.25 2.11 1.96 1.91 2.00 2.12 1.91 1.76 1.56 1.34 1.17 1.28 1.30 1.37 1.19 1.12 1.06 0.96 0.89 0.85 0.78 0.71 0.75 0.94 1.24 1.33 1.25 1.27 1.44 1.82 2.15 1.97 1.79 1.64 1.61
1.89 1.96 2.01 2.07 2.08 2.04 2.01 2.00 1.97 1.91 1.80 1.62 1.35 1.09 1.18 1.25 1.38 1.18 1.21 1.30 1.10 0.95 0.84 0.83 0.80 0.75 0.79 0.91 0.99 0.87 0.78 0.82 1.08 1.68 1.89 1.77 1.72 1.76
1.66 1.69 1.81 1.87 2.03 2.07 2.03 1.99 1.97 1.89 1.73 1.64 1.40 1.19 1.19 1.27 1.34 1.25 1.28 1.29 1.13 1.05 0.95 0.90 0.81 0.85 0.86 0.87 0.94 0.88 0.73 0.62 0.63 0.83 1.10 1.24 1.41 1.64
1.45 1.47 1.58 1.64 1.78 1.90 2.00 1.91 1.92 1.87 1.85 1.79 1.57 1.35 1.27 1.30 1.35 1.31 1.23 1.23 1.21 1.19 1.08 1.01 0.93 0.87 0.90 0.85 0.93 0.98 0.90 0.74 0.64 0.64 0.73 0.86 1.01 1.18
1.22 1.25 1.31 1.38 1.51 1.63 1.74 1.83 1.84 1.77 1.87 1.85 1.64 1.40 1.29 1.28 1.31 1.29 1.27 1.33 1.23 1.24 1.20 1.08 1.05 0.97 0.97 0.96 0.94 1.00 0.96 0.86 0.71 0.67 0.71 0.75 0.84 0.93
0.98 0.97 1.00 1.03 1.15 1.29 1.40 1.55 1.71 1.83 1.91 1.93 1.78 1.49 1.32 1.29 1.34 1.40 1.40 1.35 1.36 1.25 1.24 1.22 1.21 1.16 1.08 1.08 0.99 0.96 0.99 0.96 0.82 0.73 0.70 0.71 0.71 0.72
0.96 0.87 0.81 0.81 0.91 1.00 1.10 1.35 1.55 1.71 1.85 1.91 1.83 1.66 1.48 1.40 1.34 1.35 1.44 1.55 1.55 1.39 1.33 1.24 1.21 1.08 0.99 1.02 1.00 0.93 0.89 0.89 0.82 0.74 0.66 0.59 0.59 0.62
0.91 0.91 0.90 0.85 0.75 0.71 0.79 0.95 1.19 1.39 1.57 1.69 1.71 1.59 1.44 1.41 1.45 1.45 1.44 1.51 1.57 1.43 1.39 1.46 1.40 1.26 1.12 1.01 1.07 0.99 0.91 0.87 0.87 0.84 0.75 0.68 0.66 0.64
0.87 0.88 0.91 0.91 0.95 0.84 0.78 0.77 0.81 0.98 1.22 1.44 1.46 1.42 1.49 1.43 1.39 1.35 1.33 1.33 1.35 1.37 1.39 1.44 1.44 1.32 1.15 1.09 1.18 1.12 1.04 0.96 0.92 0.92 0.88 0.79 0.72 0.68
0.92 0.95 0.98 1.02 0.99 1.09 1.06 0.97 0.90 0.90 0.99 0.95 1.05 1.32 1.43 1.44 1.45 1.47 1.50 1.42 1.35 1.34 1.29 1.34 1.29 1.24 1.13 1.06 1.11 1.06 0.99 0.93 0.92 0.91 0.92 0.91 0.89 0.84
0.88 0.90 0.95 0.99 1.18 1.22 1.13 1.11 1.04 0.99 1.12 1.13 1.14 1.20 1.27 1.28 1.31 1.39 1.46 1.41 1.36 1.30 1.23 1.15 1.11 1.19 1.24 1.15 1.11 1.16 1.09 1.01 0.96 0.98 0.98 0.98 1.01 1.01
0.94 0.91 1.06 1.03 1.05 1.00 0.97 1.16 1.14 1.04 0.95 0.91 0.92 0.97 0.99 1.05 1.13 1.17 1.32 1.33 1.27 1.28 1.18 1.13 1.09 1.16 1.23 1.16 1.04 1.01 1.05 1.10 1.06 1.02 1.06 1.07 1.08 1.01
0.95 0.97 0.95 1.03 0.86 0.82 0.87 1.01 1.16 1.10 1.06 1.08 1.01 0.96 0.93 0.94 0.90 0.96 1.11 1.20 1.23 1.22 1.10 1.07 1.11 1.14 1.08 1.01 1.00 0.91 0.84 0.86 0.87 0.86 0.89 0.96 1.02 0.97
0.84 0.76 0.75 0.83 0.69 0.64 0.63 0.76 0.94 0.96 0.97 1.05 1.03 0.96 0.91 0.87 0.85 0.85 0.93 1.02 1.05 1.07 1.10 1.07 1.07 1.09 1.06 0.92 0.87 0.87 0.83 0.80 0.79 0.78 0.73 0.87 0.92 0.96
0.64 0.64 0.57 0.54 0.53 0.49 0.53 0.62 0.69 0.83 0.97 1.01 0.91 0.84 0.85 0.88 0.89 0.87 0.83 0.86 0.89 0.89 0.90 0.89 0.95 1.04 1.08 0.98 0.87 0.83 0.85 0.87 0.82 0.81 0.80 0.76 0.75 0.80
0.43 0.37 0.35 0.38 0.45 0.47 0.48 0.50 0.56 0.77 0.96 0.95 0.87 0.81 0.83 0.87 0.94 0.96 0.93 0.87 0.87 0.88 0.87 0.86 0.88 0.95 0.95 0.89 0.88 0.86 0.85 0.85 0.83 0.88 0.91 0.87 0.79 0.73
0.55 0.47 0.41 0.39 0.41 0.45 0.48 0.53 0.65 0.76 0.86 0.82 0.82 0.79 0.80 0.87 0.91 0.96 1.02 0.99 0.92 0.88 0.93 0.99 1.02 1.03 0.99 0.96 0.93 0.89 0.91 0.89 0.88 0.91 0.94 0.93 0.87 0.79
0.54 0.55 0.55 0.56 0.57 0.56 0.54 0.51 0.52 0.61 0.69 0.75 0.76 0.77 0.77 0.77 0.78 0.82 0.90 0.96 0.94 0.90 0.86 0.90 1.00 1.10 1.11 1.04 0.93 0.88 0.94 0.96 0.95 0.96 0.93 0.88 0.83 0.82
0.46 0.48 0.49 0.51 0.52 0.50 0.48 0.47 0.44 0.44 0.52 0.62 0.73 0.79 0.82 0.82 0.81 0.77 0.75 0.78 0.78 0.78 0.78 0.77 0.83 0.92 1.00 0.97 0.88 0.76 0.80 0.88 0.91 0.88 0.85 0.81 0.75 0.75
0.30 0.35 0.35 0.36 0.37 0.39 0.37 0.35 0.35 0.38 0.40 0.44 0.54 0.68 0.83 0.93 0.94 0.91 0.85 0.82 0.82 0.77 0.76 0.74 0.72 0.74 0.81 0.80 0.75 0.68 0.68 0.75 0.79 0.76 0.73 0.74 0.74 0.81
0.15 0.17 0.18 0.21 0.25 0.26 0.27 0.28 0.30 0.32 0.36 0.39 0.43 0.48 0.60 0.75 0.86 0.91 0.97 1.03 1.01 0.94 0.90 0.87 0.83 0.86 0.83 0.84 0.77 0.61 0.58 0.62 0.66 0.64 0.64 0.67 0.68 0.69
0.11 0.13 0.14 0.15 0.19 0.21 0.22 0.24 0.26 0.28 0.32 0.36 0.38 0.43 0.50 0.58 0.68 0.77 0.83 0.88 0.94 0.98 0.97 0.95 0.94 0.95 0.92 0.92 0.82 0.68 0.62 0.62 0.65 0.71 0.71 0.72 0.67 0.62
0.12 0.13 0.15 0.17 0.19 0.23 0.31 0.35 0.33 0.32 0.34 0.39 0.44 0.46 0.49 0.54 0.59 0.67 0.74 0.78 0.84 0.86 0.87 0.89 0.89 0.88 0.86 0.83 0.82 0.80 0.73 0.69 0.67 0.66 0.62 0.71 0.72 0.63

GEFSNE_prec_meanprecacc_186.txt.gz
Total_Precipitation_Accumulation
2.12 2.19 2.21 2.25 2.12 1.96 1.91 2.00 2.13 1.93 1.77 1.57 1.34 1.18 1.29 1.31 1.38 1.20 1.13 1.07 0.97 0.91 0.88 0.80 0.74 0.77 0.96 1.27 1.37 1.28 1.30 1.47 1.85 2.17 1.99 1.81 1.67 1.64
1.89 1.97 2.02 2.07 2.08 2.04 2.01 2.00 1.98 1.92 1.82 1.62 1.35 1.09 1.18 1.25 1.39 1.19 1.22 1.31 1.11 0.96 0.85 0.85 0.82 0.76 0.80 0.93 1.01 0.89 0.80 0.85 1.10 1.70 1.90 1.79 1.74 1.79
1.66 1.70 1.81 1.87 2.04 2.07 2.03 1.99 1.98 1.90 1.75 1.65 1.41 1.19 1.19 1.28 1.34 1.26 1.29 1.30 1.14 1.06 0.96 0.92 0.83 0.86 0.89 0.91 0.98 0.90 0.74 0.65 0.66 0.85 1.12 1.26 1.43 1.67
1.45 1.47 1.58 1.64 1.78 1.90 2.01 1.92 1.92 1.88 1.86 1.80 1.58 1.36 1.27 1.31 1.36 1.32 1.23 1.23 1.22 1.19 1.08 1.01 0.94 0.88 0.92 0.91 1.00 1.05 0.95 0.79 0.69 0.67 0.75 0.88 1.03 1.21
1.22 1.26 1.32 1.39 1.52 1.63 1.74 1.83 1.84 1.78 1.87 1.86 1.65 1.41 1.29 1.28 1.31 1.30 1.27 1.33 1.23 1.24 1.20 1.08 1.05 0.99 0.99 0.98 0.97 1.05 1.03 0.93 0.77 0.73 0.75 0.78 0.87 0.96
0.98 0.98 1.00 1.04 1.16 1.30 1.40 1.56 1.71 1.84 1.92 1.94 1.78 1.50 1.33 1.30 1.34 1.40 1.41 1.35 1.36 1.25 1.24 1.22 1.21 1.17 1.10 1.10 1.00 0.98 1.02 1.02 0.89 0.80 0.75 0.75 0.74 0.75
0.96 0.88 0.81 0.81 0.91 1.01 1.10 1.36 1.56 1.71 1.86 1.92 1.84 1.66 1.49 1.40 1.35 1.35 1.45 1.55 1.55 1.40 1.33 1.24 1.21 1.08 0.99 1.03 1.02 0.95 0.92 0.93 0.87 0.79 0.71 0.63 0.61 0.64
0.91 0.91 0.90 0.86 0.75 0.71 0.79 0.95 1.19 1.39 1.58 1.69 1.72 1.60 1.44 1.41 1.45 1.46 1.44 1.52 1.58 1.44 1.39 1.46 1.40 1.26 1.12 1.01 1.08 1.00 0.93 0.91 0.92 0.90 0.82 0.74 0.70 0.68
0.88 0.88 0.91 0.91 0.95 0.84 0.78 0.77 0.81 0.98 1.23 1.44 1.46 1.42 1.49 1.43 1.40 1.36 1.33 1.34 1.35 1.37 1.39 1.44 1.44 1.32 1.15 1.09 1.18 1.12 1.05 0.98 0.96 0.98 0.97 0.89 0.81 0.75
0.93 0.95 0.99 1.02 0.99 1.09 1.06 0.97 0.90 0.90 0.99 0.95 1.05 1.32 1.43 1.45 1.45 1.47 1.50 1.42 1.36 1.34 1.29 1.34 1.29 1.24 1.13 1.06 1.12 1.06 0.99 0.94 0.93 0.94 0.98 1.01 0.99 0.95
0.88 0.90 0.95 0.99 1.18 1.22 1.13 1.11 1.04 0.99 1.12 1.13 1.14 1.20 1.27 1.29 1.31 1.40 1.47 1.42 1.36 1.30 1.23 1.15 1.11 1.19 1.24 1.15 1.11 1.16 1.10 1.01 0.96 0.99 1.01 1.02 1.07 1.08
0.94 0.91 1.06 1.04 1.05 1.00 0.97 1.16 1.14 1.04 0.95 0.91 0.92 0.97 0.99 1.05 1.13 1.17 1.32 1.34 1.28 1.29 1.18 1.13 1.09 1.16 1.24 1.16 1.04 1.01 1.05 1.10 1.06 1.03 1.07 1.09 1.11 1.04
0.95 0.97 0.95 1.03 0.86 0.82 0.87 1.02 1.16 1.10 1.06 1.08 1.02 0.96 0.93 0.94 0.90 0.97 1.11 1.21 1.23 1.23 1.11 1.08 1.12 1.15 1.09 1.01 1.00 0.91 0.84 0.87 0.88 0.87 0.89 0.97 1.03 0.99
0.84 0.76 0.75 0.83 0.69 0.64 0.63 0.76 0.94 0.97 0.98 1.05 1.03 0.96 0.91 0.87 0.85 0.85 0.93 1.02 1.05 1.08 1.10 1.07 1.08 1.09 1.07 0.92 0.87 0.88 0.84 0.81 0.79 0.78 0.73 0.87 0.92 0.97
0.64 0.64 0.57 0.54 0.53 0.49 0.53 0.63 0.69 0.83 0.97 1.01 0.92 0.85 0.85 0.88 0.89 0.87 0.83 0.86 0.89 0.90 0.90 0.89 0.96 1.05 1.09 0.99 0.87 0.83 0.86 0.88 0.83 0.81 0.80 0.77 0.75 0.80
0.43 0.37 0.36 0.39 0.45 0.47 0.48 0.50 0.56 0.77 0.96 0.95 0.87 0.81 0.83 0.87 0.94 0.96 0.93 0.87 0.87 0.88 0.87 0.87 0.89 0.95 0.95 0.90 0.89 0.86 0.85 0.86 0.84 0.88 0.91 0.87 0.79 0.73
0.56 0.47 0.41 0.39 0.41 0.45 0.48 0.53 0.65 0.76 0.86 0.82 0.82 0.79 0.80 0.87 0.92 0.96 1.03 1.00 0.93 0.89 0.94 1.00 1.03 1.03 1.00 0.97 0.94 0.90 0.92 0.90 0.89 0.92 0.95 0.93 0.87 0.79
0.54 0.55 0.55 0.56 0.57 0.56 0.55 0.52 0.53 0.61 0.69 0.76 0.77 0.78 0.77 0.78 0.78 0.83 0.91 0.96 0.95 0.91 0.87 0.91 1.02 1.12 1.12 1.05 0.94 0.89 0.95 0.97 0.97 0.98 0.94 0.89 0.84 0.83
0.46 0.48 0.49 0.51 0.52 0.51 0.48 0.47 0.44 0.45 0.52 0.62 0.73 0.80 0.82 0.82 0.81 0.77 0.76 0.79 0.78 0.79 0.78 0.78 0.85 0.95 1.03 0.99 0.89 0.78 0.82 0.90 0.93 0.91 0.88 0.83 0.76 0.76
0.30 0.35 0.36 0.36 0.37 0.39 0.37 0.35 0.35 0.38 0.41 0.44 0.54 0.68 0.83 0.94 0.95 0.92 0.86 0.83 0.83 0.78 0.77 0.75 0.73 0.77 0.84 0.84 0.79 0.71 0.70 0.77 0.81 0.79 0.75 0.76 0.76 0.82
0.15 0.18 0.19 0.21 0.25 0.26 0.27 0.28 0.30 0.33 0.37 0.40 0.43 0.48 0.60 0.76 0.87 0.93 0.98 1.05 1.02 0.96 0.92 0.88 0.85 0.88 0.85 0.87 0.80 0.64 0.60 0.64 0.68 0.66 0.66 0.70 0.70 0.70
0.12 0.14 0.15 0.15 0.19 0.22 0.23 0.25 0.26 0.29 0.32 0.36 0.39 0.44 0.51 0.60 0.69 0.79 0.84 0.90 0.96 1.00 0.98 0.96 0.96 0.97 0.94 0.95 0.85 0.71 0.64 0.64 0.66 0.72 0.73 0.75 0.71 0.65
0.12 0.13 0.15 0.17 0.19 0.23 0.31 0.35 0.34 0.32 0.35 0.40 0.44 0.47 0.51 0.55 0.60 0.69 0.75 0.80 0.85 0.88 0.90 0.92 0.91 0.90 0.88 0.86 0.85 0.82 0.75 0.70 0.69 0.67 0.63 0.72 0.74 0.66

GEFSNE_prec_meanprecacc_192.txt.gz
Total_Precipitation_Accumulation
2.12 2.20 2.22 2.26 2.12 1.96 1.92 2.02 2.16 1.96 1.80 1.60 1.38 1.20 1.30 1.32 1.38 1.21 1.14 1.08 0.98 0.91 0.88 0.81 0.74 0.78 0.97 1.29 1.40 1.32 1.37 1.54 1.89 2.21 2.03 1.84 1.70 1.67
1.90 1.97 2.02 2.07 2.08 2.04 2.01 2.00 2.00 1.95 1.85 1.66 1.37 1.10 1.19 1.26 1.39 1.21 1.24 1.31 1.11 0.96 0.86 0.85 0.82 0.77 0.81 0.93 1.02 0.91 0.83 0.87 1.13 1.72 1.93 1.81 1.76 1.81
1.66 1.70 1.81 1.87 2.04 2.07 2.03 1.99 1.99 1.91 1.78 1.69 1.43 1.21 1.21 1.29 1.36 1.27 1.30 1.31 1.14 1.07 0.98 0.93 0.84 0.87 0.90 0.92 0.99 0.91 0.76 0.67 0.68 0.87 1.14 1.28 1.45 1.69
1.45 1.48 1.58 1.65 1.78 1.91 2.01 1.92 1.93 1.89 1.88 1.82 1.60 1.37 1.29 1.31 1.38 1.34 1.25 1.24 1.22 1.19 1.09 1.01 0.94 0.88 0.93 0.92 1.02 1.06 0.98 0.81 0.71 0.69 0.78 0.90 1.05 1.22
1.23 1.27 1.33 1.39 1.52 1.64 1.75 1.84 1.85 1.78 1.88 1.87 1.66 1.43 1.31 1.29 1.33 1.31 1.28 1.34 1.24 1.24 1.20 1.08 1.05 0.99 0.99 0.99 0.98 1.06 1.05 0.96 0.81 0.77 0.79 0.83 0.90 0.99
0.98 0.98 1.01 1.04 1.17 1.30 1.40 1.56 1.72 1.85 1.93 1.95 1.79 1.52 1.34 1.32 1.36 1.42 1.43 1.37 1.37 1.25 1.25 1.22 1.22 1.17 1.11 1.11 1.01 0.99 1.03 1.04 0.91 0.82 0.79 0.80 0.81 0.80
0.97 0.88 0.81 0.81 0.91 1.01 1.10 1.36 1.56 1.72 1.87 1.92 1.84 1.67 1.50 1.41 1.36 1.36 1.46 1.57 1.57 1.41 1.35 1.26 1.23 1.10 1.00 1.04 1.03 0.96 0.93 0.93 0.87 0.79 0.72 0.66 0.66 0.70
0.92 0.91 0.90 0.86 0.75 0.71 0.79 0.95 1.19 1.40 1.58 1.70 1.73 1.60 1.45 1.41 1.46 1.46 1.45 1.52 1.59 1.45 1.41 1.48 1.41 1.27 1.13 1.02 1.08 1.01 0.94 0.92 0.93 0.90 0.82 0.75 0.72 0.71
0.89 0.88 0.91 0.91 0.95 0.84 0.78 0.77 0.81 0.98 1.23 1.45 1.47 1.43 1.50 1.43 1.40 1.36 1.33 1.34 1.36 1.37 1.39 1.44 1.44 1.32 1.15 1.09 1.18 1.12 1.05 0.98 0.96 0.98 0.98 0.90 0.82 0.76
0.94 0.96 0.99 1.03 0.99 1.09 1.06 0.97 0.90 0.90 0.99 0.95 1.05 1.32 1.43 1.45 1.46 1.47 1.50 1.42 1.36 1.34 1.30 1.34 1.29 1.24 1.13 1.06 1.12 1.06 0.99 0.94 0.93 0.94 0.99 1.02 1.01 0.96
0.89 0.90 0.96 1.00 1.18 1.22 1.13 1.11 1.04 0.99 1.12 1.13 1.14 1.20 1.27 1.29 1.31 1.40 1.47 1.42 1.36 1.30 1.23 1.15 1.11 1.20 1.25 1.15 1.11 1.16 1.10 1.01 0.97 1.00 1.01 1.03 1.09 1.10
0.96 0.91 1.06 1.04 1.05 1.00 0.97 1.16 1.14 1.04 0.95 0.91 0.92 0.97 0.99 1.05 1.14 1.17 1.32 1.34 1.28 1.29 1.18 1.14 1.10 1.17 1.24 1.17 1.04 1.02 1.06 1.10 1.06 1.03 1.07 1.09 1.11 1.06
0.96 0.97 0.95 1.03 0.86 0.82 0.87 1.02 1.17 1.11 1.06 1.08 1.02 0.96 0.93 0.94 0.90 0.97 1.12 1.21 1.24 1.23 1.11 1.08 1.12 1.15 1.09 1.01 1.01 0.92 0.84 0.87 0.88 0.87 0.89 0.97 1.04 0.99
0.84 0.76 0.75 0.83 0.69 0.64 0.63 0.76 0.95 0.97 0.98 1.06 1.03 0.96 0.91 0.88 0.85 0.85 0.94 1.02 1.06 1.08 1.10 1.08 1.08 1.10 1.08 0.93 0.88 0.88 0.84 0.81 0.80 0.78 0.74 0.88 0.92 0.97
0.64 0.64 0.57 0.54 0.53 0.50 0.53 0.63 0.70 0.84 0.98 1.02 0.92 0.85 0.85 0.88 0.89 0.87 0.83 0.86 0.89 0.90 0.91 0.90 0.96 1.05 1.10 0.99 0.88 0.84 0.86 0.88 0.83 0.82 0.81 0.78 0.76 0.81
0.43 0.37 0.36 0.39 0.45 0.47 0.48 0.50 0.57 0.78 0.96 0.95 0.87 0.82 0.83 0.87 0.94 0.97 0.94 0.88 0.88 0.89 0.87 0.87 0.89 0.96 0.96 0.90 0.89 0.87 0.86 0.86 0.85 0.89 0.92 0.89 0.80 0.74
0.56 0.47 0.41 0.39 0.41 0.45 0.48 0.53 0.66 0.76 0.87 0.82 0.82 0.80 0.80 0.87 0.92 0.97 1.03 1.00 0.93 0.89 0.94 1.00 1.03 1.04 1.00 0.98 0.95 0.91 0.93 0.91 0.90 0.94 0.97 0.95 0.88 0.80
0.54 0.55 0.55 0.56 0.57 0.56 0.55 0.52 0.53 0.61 0.69 0.76 0.77 0.78 0.78 0.78 0.79 0.83 0.91 0.97 0.95 0.91 0.87 0.91 1.02 1.13 1.13 1.06 0.95 0.90 0.96 0.98 0.98 0.99 0.96 0.92 0.85 0.84
0.46 0.48 0.50 0.51 0.52 0.51 0.49 0.47 0.45 0.45 0.52 0.63 0.74 0.80 0.83 0.82 0.82 0.78 0.76 0.79 0.79 0.79 0.79 0.78 0.86 0.96 1.05 1.01 0.90 0.79 0.83 0.91 0.95 0.92 0.90 0.85 0.78 0.78
0.30 0.35 0.36 0.37 0.38 0.40 0.38 0.36 0.36 0.38 0.41 0.45 0.55 0.69 0.84 0.94 0.95 0.93 0.87 0.84 0.84 0.79 0.78 0.76 0.74 0.78 0.86 0.87 0.80 0.72 0.71 0.79 0.83 0.81 0.77 0.78 0.78 0.84
0.16 0.19 0.20 0.21 0.25 0.27 0.28 0.29 0.30 0.33 0.37 0.40 0.44 0.49 0.61 0.77 0.88 0.93 0.99 1.06 1.03 0.96 0.92 0.89 0.86 0.89 0.86 0.89 0.82 0.65 0.61 0.65 0.70 0.69 0.69 0.73 0.73 0.72
0.13 0.14 0.15 0.16 0.19 0.22 0.23 0.25 0.27 0.29 0.33 0.37 0.40 0.44 0.51 0.60 0.70 0.79 0.85 0.91 0.97 1.01 0.99 0.97 0.97 0.98 0.95 0.97 0.88 0.72 0.66 0.65 0.68 0.74 0.75 0.79 0.75 0.69
0.12 0.14 0.15 0.17 0.19 0.23 0.31 0.36 0.34 0.33 0.36 0.40 0.45 0.48 0.52 0.56 0.60 0.70 0.76 0.81 0.87 0.89 0.91 0.93 0.93 0.91 0.90 0.88 0.87 0.84 0.77 0.72 0.71 0.69 0.65 0.75 0.77 0.69

GEFSNE_prec_meanprecacc_198.txt.gz
Total_Precipitation_Accumulation
2.12 2.20 2.22 2.27 2.12 1.96 1.92 2.02 2.16 1.96 1.80 1.61 1.40 1.23 1.31 1.32 1.39 1.22 1.15 1.09 0.98 0.91 0.88 0.81 0.75 0.78 0.98 1.30 1.42 1.35 1.42 1.63 2.00 2.32 2.13 1.95 1.78 1.72
1.90 1.97 2.02 2.08 2.08 2.04 2.01 2.00 2.00 1.95 1.85 1.66 1.39 1.13 1.19 1.26 1.41 1.22 1.25 1.32 1.12 0.97 0.86 0.85 0.82 0.77 0.82 0.95 1.04 0.92 0.84 0.89 1.16 1.77 1.99 1.91 1.86 1.87
1.67 1.70 1.81 1.87 2.04 2.08 2.03 1.99 1.99 1.91 1.78 1.69 1.44 1.22 1.21 1.30 1.36 1.28 1.31 1.31 1.15 1.07 0.98 0.93 0.84 0.87 0.90 0.93 1.00 0.92 0.77 0.68 0.71 0.90 1.18 1.33 1.50 1.73
1.45 1.48 1.58 1.65 1.78 1.91 2.01 1.92 1.93 1.89 1.88 1.83 1.60 1.38 1.30 1.32 1.38 1.34 1.26 1.25 1.23 1.20 1.10 1.02 0.95 0.89 0.94 0.92 1.02 1.07 0.98 0.82 0.73 0.72 0.81 0.94 1.10 1.27
1.23 1.28 1.33 1.39 1.52 1.64 1.75 1.84 1.86 1.79 1.89 1.87 1.66 1.43 1.31 1.30 1.33 1.32 1.28 1.35 1.24 1.25 1.21 1.10 1.06 0.99 0.99 0.99 0.98 1.06 1.06 0.97 0.82 0.79 0.82 0.87 0.95 1.03
0.98 0.99 1.01 1.04 1.17 1.30 1.40 1.56 1.72 1.85 1.93 1.95 1.80 1.52 1.34 1.32 1.36 1.42 1.43 1.37 1.38 1.26 1.26 1.24 1.23 1.18 1.11 1.11 1.01 0.99 1.04 1.04 0.91 0.84 0.81 0.84 0.84 0.83
0.97 0.88 0.81 0.81 0.92 1.01 1.10 1.36 1.56 1.72 1.87 1.92 1.84 1.67 1.50 1.41 1.36 1.36 1.46 1.57 1.57 1.41 1.35 1.26 1.23 1.10 1.01 1.04 1.03 0.96 0.93 0.94 0.88 0.80 0.73 0.66 0.67 0.71
0.93 0.91 0.90 0.86 0.75 0.72 0.79 0.95 1.19 1.40 1.58 1.70 1.73 1.60 1.45 1.41 1.46 1.46 1.45 1.52 1.59 1.45 1.41 1.48 1.41 1.27 1.13 1.02 1.08 1.01 0.94 0.92 0.93 0.91 0.83 0.76 0.73 0.72
0.90 0.89 0.92 0.91 0.95 0.84 0.78 0.77 0.81 0.98 1.23 1.45 1.47 1.43 1.50 1.43 1.40 1.36 1.33 1.34 1.36 1.37 1.39 1.44 1.44 1.32 1.15 1.09 1.18 1.12 1.05 0.98 0.96 0.99 0.98 0.90 0.83 0.77
0.94 0.96 1.00 1.03 0.99 1.09 1.06 0.97 0.90 0.90 0.99 0.95 1.05 1.32 1.43 1.45 1.46 1.47 1.50 1.42 1.36 1.34 1.30 1.34 1.29 1.24 1.13 1.06 1.12 1.06 0.99 0.94 0.94 0.95 0.99 1.02 1.01 0.96
0.91 0.91 0.97 1.00 1.18 1.22 1.13 1.11 1.04 0.99 1.12 1.13 1.14 1.20 1.27 1.29 1.31 1.40 1.47 1.42 1.36 1.30 1.23 1.15 1.11 1.20 1.25 1.15 1.11 1.17 1.10 1.02 0.97 1.00 1.02 1.03 1.09 1.10
0.98 0.92 1.07 1.04 1.05 1.01 0.97 1.16 1.14 1.04 0.95 0.91 0.92 0.97 0.99 1.05 1.14 1.18 1.32 1.34 1.28 1.29 1.19 1.14 1.10 1.17 1.24 1.17 1.05 1.02 1.06 1.11 1.07 1.03 1.07 1.09 1.11 1.06
0.97 0.98 0.95 1.03 0.87 0.82 0.87 1.02 1.17 1.11 1.07 1.08 1.02 0.96 0.93 0.94 0.90 0.97 1.12 1.21 1.24 1.24 1.11 1.08 1.13 1.16 1.09 1.02 1.01 0.92 0.84 0.87 0.88 0.87 0.89 0.97 1.04 0.99
0.85 0.77 0.76 0.83 0.69 0.64 0.63 0.77 0.95 0.97 0.98 1.06 1.04 0.96 0.91 0.88 0.85 0.85 0.94 1.03 1.06 1.09 1.11 1.08 1.09 1.10 1.08 0.93 0.88 0.88 0.84 0.81 0.80 0.78 0.74 0.88 0.92 0.97
0.66 0.64 0.57 0.54 0.54 0.50 0.53 0.63 0.70 0.84 0.98 1.02 0.92 0.85 0.85 0.88 0.89 0.87 0.83 0.86 0.89 0.90 0.91 0.90 0.97 1.06 1.10 1.00 0.88 0.84 0.86 0.88 0.84 0.82 0.81 0.78 0.76 0.81
0.44 0.37 0.36 0.39 0.45 0.47 0.48 0.50 0.57 0.78 0.96 0.96 0.88 0.82 0.83 0.87 0.95 0.97 0.94 0.88 0.88 0.89 0.88 0.87 0.89 0.96 0.96 0.91 0.90 0.87 0.86 0.87 0.85 0.89 0.92 0.89 0.81 0.74
0.56 0.47 0.41 0.39 0.41 0.45 0.48 0.53 0.66 0.76 0.87 0.83 0.83 0.80 0.81 0.87 0.92 0.97 1.03 1.00 0.93 0.89 0.94 1.00 1.03 1.04 1.01 0.98 0.95 0.91 0.93 0.91 0.90 0.94 0.97 0.95 0.88 0.81
0.54 0.55 0.55 0.56 0.57 0.56 0.55 0.52 0.53 0.62 0.70 0.76 0.77 0.78 0.78 0.78 0.79 0.83 0.91 0.97 0.96 0.91 0.87 0.91 1.02 1.13 1.14 1.06 0.95 0.90 0.96 0.98 0.98 0.99 0.97 0.92 0.85 0.84
0.47 0.49 0.50 0.51 0.52 0.51 0.49 0.48 0.45 0.45 0.52 0.63 0.74 0.80 0.83 0.83 0.82 0.78 0.77 0.80 0.79 0.80 0.79 0.79 0.86 0.96 1.06 1.02 0.91 0.79 0.83 0.92 0.95 0.92 0.90 0.86 0.78 0.78
0.31 0.36 0.37 0.37 0.39 0.40 0.38 0.36 0.36 0.39 0.41 0.45 0.55 0.69 0.84 0.94 0.96 0.93 0.87 0.85 0.84 0.80 0.78 0.76 0.74 0.79 0.87 0.87 0.81 0.72 0.71 0.79 0.84 0.81 0.78 0.78 0.78 0.84
0.16 0.20 0.21 0.22 0.26 0.28 0.28 0.29 0.30 0.33 0.37 0.41 0.44 0.49 0.61 0.77 0.88 0.94 1.00 1.06 1.04 0.97 0.93 0.90 0.86 0.89 0.87 0.90 0.83 0.65 0.61 0.65 0.70 0.69 0.70 0.75 0.75 0.74
0.13 0.15 0.16 0.17 0.20 0.22 0.23 0.25 0.27 0.29 0.33 0.37 0.40 0.45 0.52 0.61 0.71 0.80 0.85 0.91 0.98 1.01 1.00 0.98 0.97 0.98 0.96 0.98 0.89 0.73 0.66 0.65 0.68 0.74 0.76 0.81 0.79 0.73
0.13 0.14 0.16 0.17 0.19 0.24 0.32 0.36 0.34 0.33 0.36 0.41 0.46 0.49 0.52 0.57 0.61 0.70 0.77 0.81 0.87 0.90 0.92 0.93 0.93 0.92 0.90 0.88 0.88 0.85 0.77 0.72 0.71 0.70 0.65 0.75 0.78 0.71

GEFSNE_prec_meanprecacc_204.txt.gz
Total_Precipitation_Accumulation
2.13 2.20 2.22 2.27 2.12 1.96 1.92 2.02 2.16 1.96 1.80 1.61 1.40 1.23 1.31 1.33 1.40 1.22 1.16 1.10 0.99 0.92 0.88 0.81 0.75 0.79 0.99 1.31 1.43 1.37 1.46 1.68 2.05 2.38 2.22 2.05 1.91 1.87
1.90 1.97 2.03 2.08 2.08 2.04 2.01 2.00 2.00 1.95 1.85 1.66 1.39 1.13 1.20 1.27 1.41 1.23 1.26 1.33 1.12 0.97 0.86 0.86 0.83 0.78 0.82 0.95 1.04 0.93 0.85 0.91 1.19 1.81 2.04 1.98 1.97 2.04
1.67 1.70 1.81 1.87 2.04 2.08 2.03 1.99 1.99 1.91 1.78 1.70 1.45 1.23 1.22 1.30 1.37 1.29 1.32 1.32 1.16 1.07 0.98 0.93 0.84 0.88 0.90 0.93 1.00 0.92 0.77 0.69 0.72 0.92 1.21 1.39 1.56 1.79
1.46 1.48 1.58 1.65 1.78 1.91 2.01 1.92 1.93 1.89 1.88 1.83 1.61 1.38 1.30 1.33 1.39 1.35 1.26 1.25 1.23 1.21 1.10 1.04 0.96 0.89 0.94 0.92 1.02 1.07 0.98 0.82 0.73 0.72 0.82 0.97 1.15 1.32
1.23 1.28 1.33 1.39 1.52 1.64 1.75 1.84 1.86 1.79 1.89 1.87 1.66 1.43 1.31 1.30 1.33 1.32 1.29 1.35 1.25 1.26 1.22 1.12 1.07 1.00 1.00 0.99 0.98 1.07 1.06 0.98 0.83 0.79 0.83 0.89 0.97 1.05
0.99 0.99 1.01 1.04 1.17 1.30 1.40 1.56 1.72 1.85 1.93 1.95 1.80 1.52 1.34 1.32 1.36 1.42 1.43 1.37 1.38 1.26 1.26 1.24 1.23 1.18 1.12 1.11 1.01 0.99 1.04 1.04 0.92 0.84 0.82 0.84 0.85 0.84
0.98 0.88 0.81 0.81 0.92 1.01 1.10 1.36 1.56 1.72 1.87 1.92 1.84 1.67 1.50 1.41 1.36 1.36 1.46 1.57 1.57 1.41 1.35 1.26 1.23 1.10 1.01 1.04 1.03 0.96 0.94 0.94 0.88 0.81 0.74 0.67 0.67 0.71
0.93 0.92 0.91 0.86 0.75 0.72 0.79 0.95 1.20 1.40 1.59 1.71 1.73 1.60 1.45 1.41 1.46 1.46 1.45 1.52 1.59 1.45 1.41 1.48 1.41 1.27 1.13 1.02 1.08 1.01 0.94 0.92 0.93 0.91 0.84 0.77 0.75 0.73
0.90 0.89 0.92 0.91 0.95 0.85 0.79 0.77 0.81 0.99 1.23 1.45 1.47 1.43 1.50 1.44 1.40 1.36 1.33 1.34 1.36 1.37 1.39 1.44 1.44 1.32 1.15 1.09 1.18 1.12 1.05 0.98 0.96 0.99 0.98 0.91 0.83 0.77
0.95 0.96 1.01 1.04 1.00 1.10 1.07 0.98 0.91 0.90 1.00 0.95 1.05 1.32 1.43 1.45 1.46 1.47 1.51 1.42 1.36 1.34 1.30 1.34 1.29 1.24 1.13 1.06 1.12 1.06 0.99 0.94 0.94 0.95 0.99 1.02 1.01 0.96
0.91 0.91 0.97 1.01 1.20 1.24 1.15 1.12 1.05 0.99 1.12 1.13 1.14 1.20 1.28 1.29 1.31 1.40 1.47 1.42 1.36 1.30 1.23 1.15 1.11 1.20 1.25 1.15 1.11 1.17 1.10 1.02 0.97 1.00 1.02 1.03 1.09 1.10
0.98 0.93 1.08 1.05 1.06 1.02 0.98 1.17 1.14 1.04 0.95 0.91 0.92 0.97 0.99 1.05 1.14 1.18 1.32 1.35 1.28 1.29 1.19 1.14 1.10 1.17 1.24 1.17 1.05 1.02 1.06 1.11 1.07 1.03 1.08 1.09 1.12 1.06
0.98 0.99 0.96 1.04 0.88 0.83 0.88 1.02 1.17 1.12 1.07 1.09 1.02 0.96 0.93 0.94 0.91 0.97 1.12 1.21 1.24 1.24 1.11 1.08 1.13 1.16 1.10 1.02 1.01 0.92 0.84 0.87 0.88 0.87 0.90 0.97 1.04 1.00
0.86 0.77 0.76 0.84 0.70 0.65 0.63 0.77 0.95 0.98 0.99 1.06 1.04 0.97 0.91 0.88 0.85 0.86 0.94 1.03 1.06 1.09 1.11 1.08 1.09 1.11 1.09 0.93 0.88 0.88 0.84 0.81 0.80 0.78 0.74 0.88 0.92 0.97
0.67 0.65 0.58 0.54 0.54 0.50 0.53 0.63 0.70 0.84 0.98 1.02 0.92 0.85 0.86 0.89 0.89 0.87 0.84 0.86 0.89 0.90 0.91 0.90 0.97 1.06 1.10 1.00 0.88 0.84 0.86 0.88 0.84 0.82 0.81 0.78 0.76 0.81
0.46 0.38 0.37 0.40 0.46 0.48 0.49 0.51 0.57 0.78 0.96 0.96 0.88 0.82 0.83 0.88 0.95 0.97 0.94 0.88 0.88 0.89 0.88 0.87 0.89 0.96 0.96 0.91 0.90 0.87 0.86 0.87 0.85 0.89 0.92 0.89 0.81 0.74
0.58 0.49 0.43 0.41 0.42 0.46 0.48 0.54 0.66 0.76 0.87 0.83 0.83 0.80 0.81 0.88 0.92 0.97 1.03 1.00 0.93 0.89 0.94 1.00 1.04 1.04 1.01 0.98 0.96 0.91 0.93 0.91 0.90 0.94 0.97 0.95 0.88 0.81
0.56 0.58 0.58 0.58 0.58 0.57 0.55 0.52 0.53 0.62 0.70 0.77 0.78 0.79 0.79 0.79 0.79 0.83 0.92 0.97 0.96 0.91 0.87 0.92 1.03 1.14 1.14 1.06 0.95 0.91 0.97 0.98 0.98 0.99 0.97 0.92 0.86 0.84
0.48 0.50 0.51 0.52 0.53 0.51 0.49 0.48 0.46 0.46 0.53 0.63 0.74 0.81 0.83 0.83 0.82 0.79 0.77 0.80 0.80 0.80 0.80 0.79 0.86 0.98 1.07 1.03 0.91 0.79 0.84 0.92 0.95 0.93 0.90 0.86 0.79 0.78
0.32 0.37 0.37 0.38 0.39 0.41 0.39 0.37 0.37 0.39 0.42 0.45 0.55 0.69 0.85 0.95 0.96 0.93 0.88 0.85 0.85 0.80 0.79 0.76 0.75 0.80 0.90 0.90 0.82 0.72 0.71 0.79 0.85 0.83 0.79 0.79 0.79 0.84
0.17 0.20 0.22 0.23 0.27 0.28 0.29 0.30 0.31 0.34 0.38 0.41 0.44 0.49 0.61 0.77 0.89 0.94 1.00 1.07 1.04 0.98 0.94 0.90 0.87 0.90 0.88 0.91 0.84 0.66 0.62 0.66 0.71 0.71 0.72 0.77 0.76 0.74
0.13 0.15 0.17 0.18 0.21 0.23 0.24 0.26 0.27 0.30 0.33 0.37 0.40 0.45 0.52 0.61 0.71 0.80 0.86 0.92 0.98 1.02 1.01 0.98 0.98 0.99 0.97 0.99 0.90 0.74 0.66 0.65 0.68 0.75 0.78 0.84 0.82 0.76
0.13 0.15 0.16 0.18 0.20 0.24 0.32 0.36 0.35 0.33 0.36 0.41 0.46 0.49 0.52 0.57 0.61 0.71 0.77 0.82 0.88 0.91 0.93 0.94 0.93 0.92 0.91 0.89 0.89 0.86 0.78 0.73 0.72 0.70 0.66 0.76 0.79 0.72

GEFSNE_prec_meanprecacc_210.txt.gz
Total_Precipitation_Accumulation
2.13 2.20 2.22 2.27 2.13 1.96 1.92 2.03 2.17 1.97 1.82 1.62 1.41 1.23 1.31 1.33 1.40 1.23 1.18 1.11 1.00 0.93 0.90 0.83 0.76 0.80 1.00 1.33 1.45 1.39 1.47 1.69 2.07 2.40 2.25 2.10 1.98 1.95
1.91 1.98 2.03 2.08 2.08 2.04 2.01 2.01 2.00 1.95 1.86 1.67 1.39 1.13 1.20 1.27 1.41 1.23 1.26 1.34 1.13 0.98 0.87 0.86 0.84 0.79 0.83 0.96 1.04 0.93 0.86 0.92 1.20 1.83 2.07 2.01 2.00 2.09
1.68 1.71 1.82 1.88 2.04 2.08 2.03 1.99 1.99 1.91 1.79 1.70 1.45 1.23 1.22 1.30 1.37 1.30 1.33 1.33 1.16 1.08 0.98 0.94 0.85 0.88 0.91 0.93 1.00 0.92 0.77 0.69 0.72 0.93 1.22 1.40 1.57 1.81
1.47 1.49 1.59 1.65 1.79 1.91 2.01 1.92 1.93 1.89 1.88 1.84 1.61 1.38 1.30 1.33 1.39 1.36 1.27 1.26 1.24 1.21 1.10 1.04 0.96 0.89 0.94 0.92 1.02 1.07 0.98 0.83 0.74 0.72 0.82 0.98 1.15 1.33
1.24 1.29 1.34 1.40 1.53 1.64 1.75 1.84 1.86 1.79 1.89 1.88 1.66 1.43 1.31 1.30 1.33 1.32 1.29 1.35 1.25 1.26 1.22 1.12 1.07 1.00 1.00 0.99 0.98 1.07 1.06 0.98 0.83 0.79 0.83 0.89 0.97 1.06
0.99 0.99 1.02 1.05 1.17 1.30 1.41 1.56 1.72 1.85 1.93 1.95 1.80 1.52 1.34 1.32 1.36 1.42 1.43 1.37 1.38 1.26 1.26 1.24 1.23 1.18 1.12 1.11 1.01 0.99 1.04 1.04 0.92 0.84 0.82 0.84 0.85 0.84
0.99 0.89 0.82 0.82 0.92 1.01 1.11 1.36 1.57 1.73 1.87 1.93 1.85 1.68 1.50 1.41 1.36 1.36 1.47 1.57 1.57 1.41 1.35 1.26 1.23 1.10 1.01 1.04 1.03 0.96 0.94 0.94 0.88 0.81 0.74 0.67 0.68 0.72
0.94 0.93 0.92 0.87 0.76 0.72 0.79 0.96 1.20 1.40 1.59 1.71 1.73 1.61 1.45 1.42 1.46 1.46 1.45 1.53 1.59 1.45 1.41 1.48 1.41 1.27 1.13 1.02 1.08 1.01 0.94 0.92 0.93 0.91 0.84 0.77 0.75 0.74
0.90 0.89 0.92 0.92 0.96 0.86 0.79 0.78 0.82 0.99 1.23 1.45 1.47 1.43 1.50 1.44 1.40 1.36 1.34 1.34 1.36 1.37 1.39 1.44 1.44 1.32 1.15 1.09 1.18 1.12 1.05 0.98 0.96 0.99 0.98 0.91 0.83 0.77
0.95 0.97 1.01 1.04 1.00 1.11 1.08 0.99 0.92 0.90 1.00 0.95 1.06 1.32 1.43 1.46 1.46 1.47 1.51 1.42 1.36 1.34 1.30 1.34 1.29 1.24 1.13 1.06 1.12 1.06 0.99 0.94 0.94 0.95 0.99 1.02 1.01 0.96
0.91 0.92 0.98 1.01 1.20 1.24 1.16 1.13 1.06 0.99 1.12 1.13 1.14 1.20 1.28 1.29 1.31 1.41 1.47 1.42 1.36 1.30 1.23 1.15 1.11 1.20 1.25 1.15 1.11 1.17 1.10 1.02 0.97 1.00 1.02 1.03 1.09 1.10
0.99 0.93 1.09 1.06 1.07 1.03 0.99 1.18 1.16 1.05 0.95 0.91 0.92 0.97 0.99 1.05 1.14 1.18 1.33 1.35 1.29 1.30 1.19 1.14 1.10 1.17 1.25 1.17 1.05 1.02 1.06 1.11 1.07 1.03 1.08 1.09 1.12 1.06
0.98 0.99 0.96 1.05 0.88 0.84 0.88 1.04 1.19 1.12 1.07 1.09 1.02 0.96 0.93 0.94 0.91 0.97 1.12 1.22 1.24 1.24 1.12 1.09 1.13 1.16 1.10 1.02 1.01 0.92 0.85 0.87 0.88 0.87 0.90 0.97 1.04 1.00
0.86 0.78 0.76 0.84 0.70 0.65 0.64 0.78 0.96 0.98 0.99 1.06 1.04 0.97 0.91 0.88 0.85 0.86 0.94 1.03 1.06 1.09 1.11 1.08 1.09 1.11 1.09 0.94 0.88 0.88 0.85 0.81 0.80 0.79 0.74 0.88 0.92 0.97
0.67 0.65 0.58 0.55 0.55 0.51 0.54 0.64 0.70 0.84 0.98 1.02 0.92 0.85 0.86 0.89 0.89 0.87 0.84 0.87 0.90 0.90 0.91 0.90 0.97 1.06 1.11 1.01 0.89 0.84 0.86 0.88 0.84 0.82 0.81 0.78 0.76 0.81
0.46 0.38 0.37 0.40 0.46 0.48 0.49 0.51 0.57 0.78 0.97 0.96 0.88 0.82 0.83 0.88 0.95 0.97 0.94 0.88 0.88 0.89 0.88 0.87 0.89 0.96 0.97 0.92 0.91 0.87 0.86 0.87 0.85 0.90 0.93 0.89 0.81 0.74
0.58 0.50 0.43 0.42 0.42 0.46 0.49 0.54 0.66 0.77 0.87 0.83 0.83 0.80 0.81 0.88 0.93 0.97 1.04 1.01 0.94 0.89 0.95 1.00 1.04 1.04 1.01 0.99 0.96 0.92 0.94 0.91 0.91 0.94 0.97 0.96 0.89 0.81
0.58 0.60 0.59 0.59 0.58 0.57 0.56 0.53 0.54 0.62 0.70 0.77 0.78 0.79 0.79 0.79 0.80 0.84 0.92 0.98 0.96 0.92 0.88 0.92 1.03 1.14 1.14 1.07 0.96 0.91 0.97 0.99 0.99 1.00 0.97 0.93 0.86 0.85
0.49 0.52 0.53 0.53 0.53 0.52 0.50 0.49 0.46 0.47 0.53 0.64 0.75 0.81 0.84 0.83 0.83 0.79 0.78 0.81 0.81 0.81 0.80 0.80 0.87 0.99 1.08 1.03 0.91 0.80 0.84 0.93 0.96 0.94 0.91 0.87 0.80 0.79
0.32 0.37 0.38 0.38 0.39 0.41 0.39 0.37 0.37 0.40 0.42 0.46 0.56 0.70 0.85 0.95 0.97 0.94 0.88 0.86 0.86 0.81 0.79 0.77 0.76 0.81 0.91 0.91 0.83 0.73 0.72 0.80 0.86 0.84 0.80 0.80 0.80 0.85
0.17 0.20 0.22 0.23 0.27 0.28 0.30 0.30 0.32 0.34 0.38 0.41 0.44 0.50 0.62 0.78 0.89 0.95 1.01 1.08 1.05 0.99 0.95 0.91 0.88 0.91 0.89 0.92 0.85 0.67 0.62 0.66 0.72 0.73 0.74 0.79 0.78 0.76
0.14 0.16 0.17 0.18 0.21 0.24 0.25 0.26 0.28 0.30 0.33 0.37 0.41 0.45 0.53 0.62 0.72 0.81 0.87 0.93 1.00 1.03 1.02 0.99 0.98 1.00 0.97 1.00 0.91 0.75 0.67 0.66 0.69 0.76 0.79 0.86 0.85 0.79
0.14 0.15 0.17 0.19 0.21 0.25 0.33 0.37 0.35 0.34 0.36 0.41 0.46 0.50 0.53 0.58 0.63 0.72 0.79 0.83 0.89 0.92 0.94 0.96 0.95 0.93 0.92 0.90 0.90 0.87 0.79 0.73 0.73 0.71 0.67 0.78 0.82 0.76